ETH506 HAAB-SBGR

Flight info

Callsign ETH506
Flight time N/A
Altitude 32000
Route ETGOM1A ETGOM UL432 PATAR UM216 IMVIP/N0495F340 UM216 VNA UL340 BOSNI/N0486F360 UL340 ROGOM/N0479F380 UL340 EKALO/N0475F400 UL340 ESORU UZ10 EDMUS
Aircraft B772/H-SDE2E3FGHIJ5LORVWXY/LB1D1

Departure

Time 2026-04-27 03:06
Airport Addis Ababa Bole International Airport (HAAB)

Arrival

Time N/A
Airport São Paulo/Guarulhos–Governor André Franco Montoro International Airport (SBGR)
Time Latitude Longitude Altitude Speed Heading
2026-04-27 02:43 8.98301 38.79847 7637 ft 0 kts 341°
2026-04-27 02:56 8.98294 38.79850 7637 ft 2 kts 341°
2026-04-27 02:56 8.98279 38.79855 7637 ft 2 kts 342°
2026-04-27 02:57 8.98265 38.79859 7637 ft 2 kts 342°
2026-04-27 02:57 8.98251 38.79865 7638 ft 1 kts 342°
2026-04-27 02:57 8.98242 38.79868 7638 ft 2 kts 332°
2026-04-27 02:57 8.98231 38.79877 7638 ft 2 kts 294°
2026-04-27 02:58 8.98228 38.79892 7638 ft 2 kts 263°
2026-04-27 02:58 8.98230 38.79899 7638 ft 1 kts 252°
2026-04-27 02:58 8.98230 38.79900 7638 ft 0 kts 252°
2026-04-27 03:00 8.98228 38.79894 7638 ft 1 kts 253°
2026-04-27 03:00 8.98223 38.79876 7639 ft 3 kts 255°
2026-04-27 03:01 8.98214 38.79842 7639 ft 6 kts 255°
2026-04-27 03:01 8.98199 38.79788 7640 ft 9 kts 246°
2026-04-27 03:01 8.98156 38.79720 7641 ft 12 kts 241°
2026-04-27 03:01 8.98126 38.79622 7640 ft 17 kts 254°
2026-04-27 03:02 8.98089 38.79493 7640 ft 20 kts 254°
2026-04-27 03:02 8.98046 38.79352 7638 ft 22 kts 253°
2026-04-27 03:02 8.98004 38.79207 7640 ft 19 kts 253°
2026-04-27 03:02 8.97966 38.79076 7640 ft 19 kts 253°
2026-04-27 03:03 8.97925 38.78941 7642 ft 20 kts 254°
2026-04-27 03:03 8.97784 38.78699 7639 ft 21 kts 244°
2026-04-27 03:03 8.97741 38.78545 7635 ft 23 kts 266°
2026-04-27 03:04 8.97775 38.78393 7631 ft 24 kts 258°
2026-04-27 03:04 8.97713 38.78213 7615 ft 29 kts 225°
2026-04-27 03:04 8.97521 38.78229 7606 ft 27 kts 163°
2026-04-27 03:04 8.97340 38.78299 7597 ft 28 kts 147°
2026-04-27 03:05 8.97253 38.78404 7601 ft 11 kts 90°
2026-04-27 03:05 8.97272 38.78484 7610 ft 25 kts 74°
2026-04-27 03:05 8.97377 38.78835 7630 ft 78 kts 74°
2026-04-27 03:05 8.97580 38.79543 7635 ft 130 kts 73°
2026-04-27 03:06 8.97884 38.80590 7620 ft 177 kts 74°
2026-04-27 03:06 8.98278 38.81914 7573 ft 217 kts 71°
2026-04-27 03:06 8.98764 38.83378 8014 ft 217 kts 72°
2026-04-27 03:06 8.99127 38.84863 8624 ft 219 kts 76°
2026-04-27 03:07 8.99499 38.86356 9045 ft 222 kts 74°
2026-04-27 03:07 8.99925 38.87906 9090 ft 239 kts 73°
2026-04-27 03:07 9.00388 38.89553 9341 ft 246 kts 73°
2026-04-27 03:07 9.00856 38.91221 9766 ft 246 kts 73°
2026-04-27 03:08 9.01326 38.92891 10164 ft 248 kts 73°
2026-04-27 03:08 9.01802 38.94587 10567 ft 249 kts 72°
2026-04-27 03:08 9.02144 38.96294 10932 ft 252 kts 88°
2026-04-27 03:08 9.01851 38.98036 11246 ft 257 kts 110°
2026-04-27 03:09 9.00880 38.99567 11551 ft 263 kts 134°
2026-04-27 03:09 8.99354 39.00597 11849 ft 269 kts 159°
2026-04-27 03:09 8.97484 39.00915 12139 ft 274 kts 184°
2026-04-27 03:09 8.95651 39.00416 12401 ft 277 kts 210°
2026-04-27 03:10 8.94066 38.99283 12555 ft 287 kts 218°
2026-04-27 03:10 8.92442 38.97994 12593 ft 304 kts 219°
2026-04-27 03:10 8.90721 38.96622 12705 ft 319 kts 219°
2026-04-27 03:10 8.88954 38.95211 12843 ft 332 kts 219°
2026-04-27 03:11 8.87145 38.93765 13472 ft 326 kts 219°
2026-04-27 03:11 8.85376 38.92353 13960 ft 325 kts 219°
2026-04-27 03:11 8.83579 38.90918 14341 ft 329 kts 219°
2026-04-27 03:11 8.81783 38.89482 14691 ft 334 kts 218°
2026-04-27 03:12 8.79933 38.88004 14806 ft 348 kts 218°
2026-04-27 03:12 8.77981 38.86444 14859 ft 363 kts 218°
2026-04-27 03:12 8.75935 38.84808 14920 ft 379 kts 218°
2026-04-27 03:12 8.73837 38.83129 14981 ft 393 kts 218°
2026-04-27 03:13 8.71639 38.81370 15040 ft 408 kts 218°
2026-04-27 03:13 8.69379 38.79560 15199 ft 418 kts 218°
2026-04-27 03:13 8.67114 38.77744 15578 ft 421 kts 218°
2026-04-27 03:13 8.64679 38.76054 16017 ft 422 kts 208°
2026-04-27 03:14 8.62029 38.74846 16388 ft 423 kts 198°
2026-04-27 03:14 8.59214 38.73867 16786 ft 425 kts 197°
2026-04-27 03:14 8.56408 38.72918 17207 ft 426 kts 196°
2026-04-27 03:14 8.53586 38.71965 17601 ft 428 kts 196°
2026-04-27 03:15 8.50721 38.70998 17973 ft 431 kts 196°
2026-04-27 03:15 8.47877 38.70038 18340 ft 434 kts 197°
2026-04-27 03:15 8.45017 38.69072 18714 ft 436 kts 197°
2026-04-27 03:15 8.42125 38.68095 19081 ft 438 kts 197°
2026-04-27 03:16 8.39220 38.67115 19433 ft 441 kts 197°
2026-04-27 03:16 8.36268 38.66119 19816 ft 442 kts 197°
2026-04-27 03:16 8.33337 38.65129 20166 ft 444 kts 197°
2026-04-27 03:16 8.30389 38.64135 20503 ft 447 kts 197°
2026-04-27 03:17 8.27429 38.63136 20829 ft 449 kts 197°
2026-04-27 03:17 8.24450 38.62131 21143 ft 452 kts 197°
2026-04-27 03:17 8.21449 38.61119 21465 ft 454 kts 197°
2026-04-27 03:17 8.18473 38.60115 21801 ft 456 kts 197°
2026-04-27 03:18 8.15446 38.59095 22114 ft 458 kts 197°
2026-04-27 03:18 8.12407 38.58070 22400 ft 461 kts 197°
2026-04-27 03:18 8.09354 38.57041 22692 ft 464 kts 197°
2026-04-27 03:18 8.06287 38.56008 23033 ft 465 kts 197°
2026-04-27 03:19 8.03185 38.54962 23386 ft 466 kts 197°
2026-04-27 03:19 8.00101 38.53923 23746 ft 467 kts 197°
2026-04-27 03:19 7.97027 38.52888 24063 ft 468 kts 197°
2026-04-27 03:19 7.93920 38.51841 24340 ft 470 kts 197°
2026-04-27 03:20 7.90785 38.50786 24632 ft 472 kts 197°
2026-04-27 03:20 7.87685 38.49742 24911 ft 474 kts 197°
2026-04-27 03:20 7.84539 38.48683 25181 ft 476 kts 197°
2026-04-27 03:20 7.81379 38.47620 25462 ft 478 kts 197°
2026-04-27 03:21 7.78222 38.46557 25744 ft 479 kts 197°
2026-04-27 03:21 7.75026 38.45482 26024 ft 481 kts 197°
2026-04-27 03:21 7.71838 38.44410 26281 ft 482 kts 197°
2026-04-27 03:21 7.68658 38.43340 26531 ft 484 kts 197°
2026-04-27 03:22 7.65434 38.42256 26804 ft 485 kts 197°
2026-04-27 03:22 7.62249 38.41185 27049 ft 487 kts 197°
2026-04-27 03:22 7.59021 38.40100 27271 ft 489 kts 197°
2026-04-27 03:22 7.55783 38.39012 27497 ft 490 kts 197°
2026-04-27 03:23 7.52525 38.37839 27721 ft 493 kts 202°
2026-04-27 03:23 7.49478 38.36257 27919 ft 496 kts 210°
2026-04-27 03:23 7.46670 38.34222 28117 ft 500 kts 219°
2026-04-27 03:23 7.44156 38.31752 28294 ft 503 kts 227°
2026-04-27 03:24 7.41933 38.29035 28493 ft 505 kts 230°
2026-04-27 03:24 7.39747 38.26285 28761 ft 505 kts 230°
2026-04-27 03:24 7.37544 38.23521 29019 ft 506 kts 230°
2026-04-27 03:24 7.35339 38.20767 29211 ft 508 kts 230°
2026-04-27 03:25 7.33101 38.17980 29397 ft 510 kts 230°
2026-04-27 03:25 7.30883 38.15224 29603 ft 511 kts 230°
2026-04-27 03:25 7.28655 38.12462 29832 ft 512 kts 230°
2026-04-27 03:25 7.26409 38.09682 30124 ft 511 kts 230°
2026-04-27 03:26 7.24145 38.06882 30448 ft 509 kts 230°
2026-04-27 03:26 7.21916 38.04128 30793 ft 507 kts 230°
2026-04-27 03:26 7.19708 38.01402 31096 ft 506 kts 230°
2026-04-27 03:26 7.17474 37.98645 31397 ft 505 kts 230°
2026-04-27 03:27 7.15257 37.95910 31697 ft 504 kts 230°
2026-04-27 03:27 7.13042 37.93180 32013 ft 502 kts 230°
2026-04-27 03:27 7.10843 37.90469 32287 ft 501 kts 230°
2026-04-27 03:28 7.06407 37.85001 32309 ft 502 kts 230°
2026-04-27 03:28 7.02015 37.79593 32317 ft 502 kts 230°
2026-04-27 03:29 6.97584 37.74139 32305 ft 501 kts 230°
2026-04-27 03:29 6.93166 37.68703 32301 ft 501 kts 230°
2026-04-27 03:30 6.88712 37.63343 32296 ft 499 kts 225°
2026-04-27 03:30 6.83176 37.59102 32300 ft 500 kts 208°
2026-04-27 03:31 6.77055 37.55770 32289 ft 498 kts 207°
2026-04-27 03:31 6.70951 37.52493 32289 ft 499 kts 207°
2026-04-27 03:32 6.64782 37.49186 32286 ft 498 kts 207°
2026-04-27 03:32 6.58652 37.45904 32258 ft 498 kts 207°
2026-04-27 03:33 6.52552 37.42641 32244 ft 499 kts 207°
2026-04-27 03:33 6.46389 37.39345 32225 ft 499 kts 207°
2026-04-27 03:34 6.40283 37.36081 32244 ft 499 kts 207°
2026-04-27 03:34 6.34140 37.32799 32241 ft 499 kts 207°
2026-04-27 03:35 6.27986 37.29510 32231 ft 498 kts 207°
2026-04-27 03:35 6.21850 37.26234 32216 ft 498 kts 207°
2026-04-27 03:36 6.15744 37.22974 32220 ft 498 kts 207°
2026-04-27 03:36 6.09603 37.19696 32242 ft 497 kts 207°
2026-04-27 03:37 6.03491 37.16434 32249 ft 498 kts 207°
2026-04-27 03:37 5.97364 37.13166 32242 ft 499 kts 207°
2026-04-27 03:38 5.91199 37.09878 32197 ft 498 kts 207°
2026-04-27 03:38 5.85080 37.06615 32151 ft 501 kts 207°
2026-04-27 03:39 5.78900 37.03320 32115 ft 498 kts 207°
2026-04-27 03:39 5.72763 37.00050 32100 ft 499 kts 207°
2026-04-27 03:40 5.66644 36.96790 32101 ft 500 kts 207°
2026-04-27 03:40 5.60464 36.93498 32115 ft 502 kts 207°
2026-04-27 03:41 5.54292 36.90211 32141 ft 502 kts 207°
2026-04-27 03:41 5.48079 36.86903 32133 ft 502 kts 207°
2026-04-27 03:42 5.41916 36.83622 32139 ft 504 kts 207°
2026-04-27 03:42 5.35682 36.80305 32138 ft 503 kts 207°
2026-04-27 03:43 5.29501 36.77016 32146 ft 503 kts 207°
2026-04-27 03:43 5.23287 36.73711 32157 ft 505 kts 207°
2026-04-27 03:44 5.17086 36.70413 32125 ft 505 kts 207°
2026-04-27 03:44 5.10885 36.67116 32102 ft 505 kts 207°
2026-04-27 03:45 5.04657 36.63806 32084 ft 506 kts 207°
2026-04-27 03:45 4.98427 36.60495 32068 ft 506 kts 208°
2026-04-27 03:46 4.92164 36.57167 32073 ft 506 kts 207°
2026-04-27 03:46 4.85958 36.53870 32061 ft 506 kts 207°
2026-04-27 03:47 4.79694 36.50542 32064 ft 508 kts 207°
2026-04-27 03:47 4.73427 36.47214 32058 ft 507 kts 207°
2026-04-27 03:48 4.67205 36.43911 32042 ft 508 kts 207°
2026-04-27 03:48 4.60952 36.40592 32033 ft 508 kts 207°
2026-04-27 03:49 4.54681 36.37264 32020 ft 510 kts 207°
2026-04-27 03:49 4.48401 36.33932 32002 ft 509 kts 207°
2026-04-27 03:50 4.42128 36.30605 31986 ft 509 kts 207°
2026-04-27 03:50 4.35862 36.27282 31979 ft 510 kts 207°
2026-04-27 03:51 4.29572 36.23946 31984 ft 510 kts 207°
2026-04-27 03:51 4.23312 36.20627 31987 ft 511 kts 207°
2026-04-27 03:52 4.16990 36.17276 31981 ft 511 kts 207°
2026-04-27 03:52 4.10687 36.13936 31978 ft 511 kts 207°
2026-04-27 03:53 4.04400 36.10604 31973 ft 512 kts 206°
2026-04-27 03:53 3.98118 36.07278 31974 ft 511 kts 206°
2026-04-27 03:54 3.91780 36.03939 31974 ft 512 kts 206°
2026-04-27 03:54 3.85485 36.00624 31967 ft 511 kts 206°
2026-04-27 03:55 3.79158 35.97292 31969 ft 511 kts 206°
2026-04-27 03:55 3.72860 35.93975 31972 ft 510 kts 206°
2026-04-27 03:56 3.66602 35.90679 31977 ft 510 kts 206°
2026-04-27 03:56 3.60293 35.87358 31986 ft 510 kts 206°
2026-04-27 03:57 3.53986 35.84037 31985 ft 510 kts 206°
2026-04-27 03:57 3.47735 35.80748 31999 ft 509 kts 206°
2026-04-27 03:58 3.41408 35.77418 31995 ft 510 kts 206°
2026-04-27 03:58 3.35157 35.74128 32000 ft 508 kts 206°
2026-04-27 03:59 3.28874 35.70823 31998 ft 508 kts 206°
2026-04-27 03:59 3.22572 35.67508 31990 ft 510 kts 206°
2026-04-27 04:00 3.16303 35.64211 31987 ft 508 kts 206°
2026-04-27 04:00 3.10213 35.60572 31976 ft 511 kts 217°
2026-04-27 04:01 3.04995 35.55756 32005 ft 511 kts 223°
2026-04-27 04:01 2.99892 35.50811 32009 ft 510 kts 223°
2026-04-27 04:02 2.94799 35.45880 32014 ft 511 kts 223°
2026-04-27 04:02 2.89680 35.40928 32042 ft 510 kts 223°
2026-04-27 04:03 2.84553 35.35970 32049 ft 511 kts 223°
2026-04-27 04:03 2.79429 35.31017 32055 ft 511 kts 223°
2026-04-27 04:04 2.74322 35.26082 32062 ft 511 kts 223°
2026-04-27 04:04 2.69227 35.21159 32066 ft 510 kts 223°
2026-04-27 04:05 2.64124 35.16230 32081 ft 510 kts 223°
2026-04-27 04:05 2.58985 35.11266 32095 ft 510 kts 223°
2026-04-27 04:06 2.53884 35.06340 32112 ft 508 kts 223°
2026-04-27 04:06 2.48810 35.01439 32122 ft 509 kts 223°
2026-04-27 04:07 2.41505 34.93755 32188 ft 509 kts 229°
2026-04-27 04:07 2.36892 34.88355 32221 ft 509 kts 229°
2026-04-27 04:08 2.32320 34.83007 32233 ft 509 kts 229°
2026-04-27 04:08 2.27709 34.77620 32227 ft 508 kts 229°
2026-04-27 04:09 2.23112 34.72250 32205 ft 508 kts 229°
2026-04-27 04:09 2.18515 34.66884 32202 ft 509 kts 229°
2026-04-27 04:10 2.13910 34.61507 32194 ft 507 kts 229°
2026-04-27 04:10 2.09311 34.56140 32188 ft 508 kts 229°
2026-04-27 04:11 2.04721 34.50784 32185 ft 508 kts 229°
2026-04-27 04:11 2.00120 34.45415 32179 ft 508 kts 229°
2026-04-27 04:12 1.95508 34.40035 32173 ft 508 kts 229°
2026-04-27 04:12 1.90915 34.34676 32176 ft 507 kts 228°
2026-04-27 04:13 1.86353 34.29355 32165 ft 506 kts 228°
2026-04-27 04:13 1.81749 34.23998 32160 ft 507 kts 226°
2026-04-27 04:14 1.76840 34.18967 32157 ft 505 kts 224°
2026-04-27 04:14 1.71876 34.13944 32156 ft 506 kts 224°
2026-04-27 04:15 1.66967 34.08955 32145 ft 504 kts 224°
2026-04-27 04:15 1.62018 34.03911 32149 ft 505 kts 224°
2026-04-27 04:16 1.57121 33.98913 32149 ft 505 kts 224°
2026-04-27 04:16 1.52189 33.93876 32149 ft 504 kts 224°
2026-04-27 04:17 1.47282 33.88862 32143 ft 503 kts 224°
2026-04-27 04:17 1.42371 33.83843 32145 ft 504 kts 224°
2026-04-27 04:18 1.37482 33.78846 32147 ft 504 kts 224°
2026-04-27 04:18 1.32552 33.73807 32146 ft 503 kts 224°
2026-04-27 04:19 1.27677 33.68825 32143 ft 503 kts 224°
2026-04-27 04:19 1.22756 33.63795 32142 ft 504 kts 224°
2026-04-27 04:20 1.17828 33.58758 32141 ft 503 kts 224°
2026-04-27 04:20 1.12923 33.53746 32140 ft 504 kts 224°
2026-04-27 04:21 1.08020 33.48737 32141 ft 502 kts 224°
2026-04-27 04:21 1.03099 33.43708 32144 ft 504 kts 224°
2026-04-27 04:22 0.98209 33.38711 32150 ft 503 kts 224°
2026-04-27 04:22 0.93281 33.33675 32156 ft 505 kts 224°
2026-04-27 04:23 0.88366 33.28653 32146 ft 503 kts 224°
2026-04-27 04:23 0.83483 33.23665 32150 ft 505 kts 224°
2026-04-27 04:24 0.78559 33.18636 32201 ft 508 kts 224°
2026-04-27 04:24 0.76085 33.16109 32412 ft 508 kts 224°
2026-04-27 04:24 0.73596 33.13567 32727 ft 506 kts 224°
2026-04-27 04:25 0.71140 33.11057 33114 ft 504 kts 224°
2026-04-27 04:25 0.68692 33.08556 33453 ft 503 kts 224°
2026-04-27 04:25 0.66260 33.06073 33713 ft 503 kts 224°
2026-04-27 04:25 0.63803 33.03563 33979 ft 503 kts 224°
2026-04-27 04:26 0.61355 33.01063 34161 ft 504 kts 224°
2026-04-27 04:26 0.58891 32.98547 34161 ft 503 kts 224°
2026-04-27 04:26 0.54031 32.93583 34158 ft 502 kts 224°
2026-04-27 04:27 0.49112 32.88559 34161 ft 503 kts 224°
2026-04-27 04:27 0.44240 32.83584 34168 ft 503 kts 224°
2026-04-27 04:28 0.39346 32.78586 34170 ft 502 kts 224°
2026-04-27 04:28 0.34460 32.73597 34174 ft 502 kts 224°
2026-04-27 04:29 0.29582 32.68615 34177 ft 502 kts 224°
2026-04-27 04:29 0.24689 32.63618 34178 ft 503 kts 224°
2026-04-27 04:30 0.19790 32.58615 34181 ft 503 kts 224°
2026-04-27 04:30 0.14894 32.53616 34178 ft 503 kts 224°
2026-04-27 04:31 0.09994 32.48613 34177 ft 503 kts 224°
2026-04-27 04:31 0.05290 32.43435 34163 ft 505 kts 233°
2026-04-27 04:32 0.01737 32.37419 34173 ft 506 kts 240°
2026-04-27 04:32 -0.01637 32.31273 34173 ft 506 kts 240°
2026-04-27 04:33 -0.05034 32.25094 34177 ft 507 kts 240°
2026-04-27 04:33 -0.08437 32.18911 34179 ft 508 kts 240°
2026-04-27 04:34 -0.11845 32.12721 34184 ft 508 kts 240°
2026-04-27 04:34 -0.15239 32.06560 34187 ft 508 kts 240°
2026-04-27 04:35 -0.18633 32.00399 34188 ft 507 kts 240°
2026-04-27 04:35 -0.22032 31.94230 34190 ft 507 kts 240°
2026-04-27 04:36 -0.25451 31.88025 34194 ft 508 kts 240°
2026-04-27 04:36 -0.28851 31.81856 34213 ft 509 kts 240°
2026-04-27 04:37 -0.32247 31.75692 34196 ft 508 kts 240°
2026-04-27 04:37 -0.35666 31.69488 34197 ft 509 kts 240°
2026-04-27 04:38 -0.39059 31.63329 34202 ft 507 kts 240°
2026-04-27 04:38 -0.42463 31.57153 34202 ft 510 kts 240°
2026-04-27 04:39 -0.45870 31.50969 34205 ft 508 kts 240°
2026-04-27 04:39 -0.49280 31.44779 34211 ft 509 kts 240°
2026-04-27 04:40 -0.52675 31.38619 34215 ft 508 kts 240°
2026-04-27 04:40 -0.56071 31.32454 34209 ft 508 kts 240°
2026-04-27 04:41 -0.59473 31.26279 34222 ft 508 kts 240°
2026-04-27 04:41 -0.62879 31.20096 34226 ft 508 kts 240°
2026-04-27 04:42 -0.66298 31.13890 34229 ft 508 kts 240°
2026-04-27 04:42 -0.69683 31.07746 34222 ft 508 kts 240°
2026-04-27 04:43 -0.73085 31.01570 34216 ft 508 kts 240°
2026-04-27 04:43 -0.76489 30.95390 34215 ft 506 kts 240°
2026-04-27 04:44 -0.79889 30.89217 34225 ft 507 kts 240°
2026-04-27 04:44 -0.83265 30.83087 34227 ft 507 kts 240°
2026-04-27 04:45 -0.86679 30.76889 34232 ft 508 kts 240°
2026-04-27 04:45 -0.90067 30.70738 34238 ft 507 kts 240°
2026-04-27 04:46 -0.93472 30.64553 34259 ft 506 kts 240°
2026-04-27 04:46 -0.96858 30.58406 34253 ft 506 kts 241°
2026-04-27 04:47 -1.00255 30.52235 34262 ft 507 kts 241°
2026-04-27 04:47 -1.03647 30.46076 34265 ft 506 kts 241°
2026-04-27 04:48 -1.07030 30.39908 34264 ft 507 kts 243°
2026-04-27 04:48 -1.09483 30.33350 34270 ft 507 kts 253°
2026-04-27 04:49 -1.11575 30.26637 34272 ft 507 kts 253°
2026-04-27 04:49 -1.13677 30.19895 34277 ft 506 kts 253°
2026-04-27 04:50 -1.15769 30.13185 34295 ft 507 kts 253°
2026-04-27 04:50 -1.17851 30.06516 34305 ft 505 kts 253°
2026-04-27 04:51 -1.19940 29.99822 34317 ft 506 kts 253°
2026-04-27 04:51 -1.22037 29.93104 34319 ft 506 kts 253°
2026-04-27 04:52 -1.24129 29.86401 34322 ft 507 kts 253°
2026-04-27 04:52 -1.26228 29.79678 34320 ft 507 kts 253°
2026-04-27 04:53 -1.28319 29.72978 34319 ft 506 kts 253°
2026-04-27 04:53 -1.30405 29.66295 34319 ft 506 kts 253°
2026-04-27 04:54 -1.32524 29.59590 34319 ft 506 kts 250°
2026-04-27 04:54 -1.35356 29.53179 34346 ft 507 kts 246°
2026-04-27 04:55 -1.38308 29.46794 34383 ft 506 kts 246°
2026-04-27 04:55 -1.41268 29.40391 34402 ft 507 kts 246°
2026-04-27 04:56 -1.44219 29.34002 34429 ft 506 kts 246°
2026-04-27 04:56 -1.47153 29.27645 34437 ft 506 kts 246°
2026-04-27 04:57 -1.49685 29.21131 34456 ft 505 kts 254°
2026-04-27 04:57 -1.51676 29.14402 34434 ft 505 kts 255°
2026-04-27 04:58 -1.53633 29.07685 34398 ft 504 kts 255°
2026-04-27 04:58 -1.55593 29.00963 34370 ft 504 kts 251°
2026-04-27 04:59 -1.58315 28.94486 34349 ft 506 kts 247°
2026-04-27 04:59 -1.61125 28.88097 34336 ft 506 kts 247°
2026-04-27 05:00 -1.63962 28.81642 34328 ft 506 kts 247°
2026-04-27 05:00 -1.66784 28.75220 34325 ft 506 kts 247°
2026-04-27 05:01 -1.69608 28.68790 34306 ft 505 kts 247°
2026-04-27 05:01 -1.72416 28.62396 34286 ft 505 kts 247°
2026-04-27 05:02 -1.75235 28.55975 34269 ft 505 kts 247°
2026-04-27 05:03 -1.79467 28.46334 34238 ft 505 kts 247°
2026-04-27 05:03 -1.82287 28.39910 34232 ft 505 kts 247°
2026-04-27 05:04 -1.85099 28.33502 34221 ft 504 kts 248°
2026-04-27 05:04 -1.87925 28.27063 34215 ft 504 kts 247°
2026-04-27 05:05 -1.90734 28.20661 34213 ft 504 kts 247°
2026-04-27 05:05 -1.93551 28.14241 34213 ft 504 kts 248°
2026-04-27 05:06 -1.96365 28.07825 34212 ft 504 kts 248°
2026-04-27 05:06 -1.99172 28.01425 34208 ft 504 kts 248°
2026-04-27 05:07 -2.01971 27.95041 34211 ft 504 kts 248°
2026-04-27 05:07 -2.04781 27.88633 34200 ft 502 kts 247°
2026-04-27 05:08 -2.07598 27.82208 34198 ft 504 kts 248°
2026-04-27 05:08 -2.10399 27.75820 34186 ft 504 kts 248°
2026-04-27 05:09 -2.13211 27.69404 34171 ft 503 kts 248°
2026-04-27 05:09 -2.16014 27.63008 34170 ft 504 kts 248°
2026-04-27 05:10 -2.18822 27.56599 34157 ft 504 kts 248°
2026-04-27 05:10 -2.21623 27.50207 34156 ft 502 kts 247°
2026-04-27 05:11 -2.24415 27.43834 34148 ft 503 kts 248°
2026-04-27 05:11 -2.27223 27.37423 34132 ft 504 kts 248°
2026-04-27 05:12 -2.30022 27.31032 34114 ft 504 kts 248°
2026-04-27 05:12 -2.32830 27.24621 34104 ft 503 kts 247°
2026-04-27 05:13 -2.35641 27.18200 34112 ft 504 kts 247°
2026-04-27 05:13 -2.38441 27.11805 34110 ft 504 kts 248°
2026-04-27 05:14 -2.41264 27.05356 34103 ft 504 kts 247°
2026-04-27 05:14 -2.44058 26.98969 34103 ft 505 kts 248°
2026-04-27 05:15 -2.46865 26.92556 34101 ft 505 kts 247°
2026-04-27 05:15 -2.49685 26.86109 34087 ft 505 kts 247°
2026-04-27 05:16 -2.52503 26.79668 34087 ft 505 kts 248°
2026-04-27 05:16 -2.55301 26.73272 34089 ft 505 kts 247°
2026-04-27 05:17 -2.58117 26.66832 34100 ft 508 kts 248°
2026-04-27 05:17 -2.60943 26.60369 34105 ft 506 kts 247°
2026-04-27 05:18 -2.63771 26.53900 34112 ft 508 kts 247°
2026-04-27 05:18 -2.66589 26.47455 34113 ft 508 kts 247°
2026-04-27 05:19 -2.69419 26.40978 34102 ft 508 kts 247°
2026-04-27 05:19 -2.72248 26.34505 34088 ft 509 kts 247°
2026-04-27 05:20 -2.75084 26.28013 34072 ft 509 kts 247°
2026-04-27 05:20 -2.77907 26.21550 34066 ft 510 kts 247°
2026-04-27 05:21 -2.80756 26.15027 34057 ft 512 kts 247°
2026-04-27 05:21 -2.83595 26.08526 34056 ft 509 kts 247°
2026-04-27 05:22 -2.86427 26.02040 34049 ft 513 kts 247°
2026-04-27 05:22 -2.89276 25.95512 34049 ft 511 kts 247°
2026-04-27 05:23 -2.92108 25.89022 34056 ft 512 kts 247°
2026-04-27 05:23 -2.94909 25.82516 34063 ft 511 kts 248°
2026-04-27 05:24 -2.97731 25.75955 34061 ft 512 kts 248°
2026-04-27 05:24 -3.00536 25.69431 34062 ft 511 kts 248°
2026-04-27 05:25 -3.03343 25.62907 34069 ft 511 kts 247°
2026-04-27 05:25 -3.06141 25.56399 34074 ft 511 kts 247°
2026-04-27 05:26 -3.08948 25.49871 34079 ft 511 kts 248°
2026-04-27 05:26 -3.11753 25.43348 34077 ft 510 kts 248°
2026-04-27 05:27 -3.14558 25.36823 34076 ft 511 kts 248°
2026-04-27 05:27 -3.17355 25.30315 34071 ft 511 kts 248°
2026-04-27 05:28 -3.20165 25.23775 34073 ft 511 kts 247°
2026-04-27 05:28 -3.22979 25.17226 34070 ft 512 kts 247°
2026-04-27 05:29 -3.25785 25.10693 34071 ft 511 kts 247°
2026-04-27 05:29 -3.28571 25.04207 34069 ft 511 kts 247°
2026-04-27 05:30 -3.31382 24.97661 34066 ft 510 kts 247°
2026-04-27 05:30 -3.34162 24.91185 34064 ft 510 kts 247°
2026-04-27 05:31 -3.36964 24.84655 34063 ft 511 kts 247°
2026-04-27 05:31 -3.39759 24.78140 34062 ft 510 kts 247°
2026-04-27 05:32 -3.42560 24.71612 34063 ft 511 kts 247°
2026-04-27 05:32 -3.45357 24.65092 34061 ft 511 kts 247°
2026-04-27 05:33 -3.48155 24.58566 34063 ft 511 kts 247°
2026-04-27 05:33 -3.50957 24.52031 34067 ft 510 kts 247°
2026-04-27 05:34 -3.53756 24.45501 34072 ft 511 kts 247°
2026-04-27 05:34 -3.56534 24.39019 34069 ft 510 kts 247°
2026-04-27 05:35 -3.59340 24.32468 34062 ft 510 kts 247°
2026-04-27 05:35 -3.62119 24.25980 34064 ft 511 kts 247°
2026-04-27 05:36 -3.64840 24.19386 34062 ft 510 kts 249°
2026-04-27 05:36 -3.67473 24.12812 34064 ft 511 kts 249°
2026-04-27 05:37 -3.70115 24.06226 34062 ft 509 kts 249°
2026-04-27 05:37 -3.72755 23.99655 34065 ft 510 kts 249°
2026-04-27 05:38 -3.75407 23.93058 34061 ft 510 kts 248°
2026-04-27 05:38 -3.78044 23.86496 34060 ft 512 kts 248°
2026-04-27 05:39 -3.80698 23.79894 34061 ft 510 kts 248°
2026-04-27 05:39 -3.83350 23.73297 34058 ft 509 kts 248°
2026-04-27 05:40 -3.85988 23.66734 34061 ft 511 kts 248°
2026-04-27 05:40 -3.88637 23.60139 34062 ft 510 kts 248°
2026-04-27 05:41 -3.91277 23.53567 34065 ft 510 kts 248°
2026-04-27 05:41 -3.93906 23.47019 34066 ft 511 kts 248°
2026-04-27 05:42 -3.96548 23.40440 34065 ft 508 kts 248°
2026-04-27 05:42 -3.99179 23.33884 34060 ft 509 kts 248°
2026-04-27 05:43 -4.01820 23.27302 34055 ft 508 kts 248°
2026-04-27 05:43 -4.04445 23.20760 34056 ft 508 kts 248°
2026-04-27 05:44 -4.07488 23.14374 34051 ft 509 kts 243°
2026-04-27 05:44 -4.10651 23.08069 34046 ft 508 kts 243°
2026-04-27 05:45 -4.13808 23.01726 34044 ft 508 kts 243°
2026-04-27 05:45 -4.16937 22.95409 34043 ft 508 kts 243°
2026-04-27 05:46 -4.20074 22.89058 34038 ft 508 kts 243°
2026-04-27 05:46 -4.23189 22.82742 34036 ft 508 kts 243°
2026-04-27 05:47 -4.26334 22.76359 34034 ft 508 kts 243°
2026-04-27 05:47 -4.29436 22.70059 34036 ft 508 kts 243°
2026-04-27 05:48 -4.32564 22.63700 34037 ft 508 kts 243°
2026-04-27 05:48 -4.35688 22.57350 34038 ft 509 kts 243°
2026-04-27 05:49 -4.38799 22.51025 34046 ft 509 kts 243°
2026-04-27 05:49 -4.41917 22.44682 34055 ft 509 kts 243°
2026-04-27 05:50 -4.45031 22.38346 34054 ft 508 kts 243°
2026-04-27 05:50 -4.48152 22.31993 34047 ft 508 kts 243°
2026-04-27 05:51 -4.51271 22.25643 34047 ft 509 kts 243°
2026-04-27 05:51 -4.54394 22.19284 34049 ft 509 kts 243°
2026-04-27 05:52 -4.57500 22.12957 34047 ft 510 kts 243°
2026-04-27 05:52 -4.60617 22.06606 34048 ft 507 kts 243°
2026-04-27 05:53 -4.63734 22.00255 34050 ft 508 kts 243°
2026-04-27 05:53 -4.66839 21.93925 34057 ft 507 kts 243°
2026-04-27 05:54 -4.69949 21.87584 34053 ft 507 kts 243°
2026-04-27 05:54 -4.73070 21.81217 34057 ft 509 kts 243°
2026-04-27 05:55 -4.76180 21.74871 34057 ft 507 kts 243°
2026-04-27 05:55 -4.79280 21.68545 34056 ft 507 kts 243°
2026-04-27 05:56 -4.82399 21.62187 34059 ft 506 kts 243°
2026-04-27 05:56 -4.85491 21.55883 34057 ft 507 kts 243°
2026-04-27 05:57 -4.88604 21.49534 34057 ft 507 kts 243°
2026-04-27 05:57 -4.91709 21.43201 34053 ft 507 kts 243°
2026-04-27 05:58 -4.94822 21.36850 34055 ft 506 kts 243°
2026-04-27 05:58 -4.97918 21.30530 34049 ft 506 kts 243°
2026-04-27 05:59 -5.01019 21.24198 34054 ft 506 kts 243°
2026-04-27 05:59 -5.04109 21.17888 34056 ft 506 kts 243°
2026-04-27 06:00 -5.08760 21.08385 34057 ft 507 kts 243°
2026-04-27 06:00 -5.11865 21.02040 34053 ft 506 kts 243°
2026-04-27 06:01 -5.14953 20.95727 34050 ft 505 kts 243°
2026-04-27 06:01 -5.18061 20.89371 34049 ft 505 kts 243°
2026-04-27 06:02 -5.21147 20.83057 34057 ft 505 kts 243°
2026-04-27 06:02 -5.24224 20.76761 34063 ft 504 kts 243°
2026-04-27 06:03 -5.27299 20.70467 34077 ft 504 kts 243°
2026-04-27 06:03 -5.30398 20.64122 34084 ft 504 kts 243°
2026-04-27 06:04 -5.33465 20.57839 34088 ft 504 kts 243°
2026-04-27 06:04 -5.36542 20.51536 34089 ft 503 kts 243°
2026-04-27 06:05 -5.39612 20.45244 34091 ft 502 kts 243°
2026-04-27 06:05 -5.42684 20.38942 34092 ft 502 kts 243°
2026-04-27 06:06 -5.45732 20.32670 34088 ft 502 kts 243°
2026-04-27 06:06 -5.48803 20.26349 34082 ft 502 kts 243°
2026-04-27 06:07 -5.51849 20.20078 34073 ft 503 kts 243°
2026-04-27 06:07 -5.54910 20.13773 34069 ft 503 kts 243°
2026-04-27 06:08 -5.57967 20.07475 34063 ft 502 kts 243°
2026-04-27 06:08 -5.61033 20.01158 34067 ft 502 kts 243°
2026-04-27 06:09 -5.64073 19.94891 34071 ft 502 kts 243°
2026-04-27 06:09 -5.67129 19.88588 34074 ft 503 kts 243°
2026-04-27 06:10 -5.70196 19.82262 34079 ft 502 kts 243°
2026-04-27 06:10 -5.73251 19.75959 34082 ft 502 kts 243°
2026-04-27 06:11 -5.76293 19.69680 34086 ft 504 kts 243°
2026-04-27 06:11 -5.79353 19.63361 34087 ft 504 kts 243°
2026-04-27 06:12 -5.82414 19.57040 34088 ft 503 kts 243°
2026-04-27 06:12 -5.85469 19.50726 34089 ft 504 kts 243°
2026-04-27 06:13 -5.88525 19.44408 34090 ft 503 kts 243°
2026-04-27 06:13 -5.91595 19.38059 34093 ft 504 kts 243°
2026-04-27 06:14 -5.94644 19.31752 34090 ft 504 kts 243°
2026-04-27 06:14 -5.97713 19.25401 34097 ft 505 kts 243°
2026-04-27 06:15 -6.00761 19.19092 34098 ft 504 kts 243°
2026-04-27 06:15 -6.03823 19.12752 34109 ft 505 kts 243°
2026-04-27 06:16 -6.06892 19.06393 34122 ft 505 kts 243°
2026-04-27 06:16 -6.09946 19.00065 34135 ft 505 kts 243°
2026-04-27 06:17 -6.13021 18.93691 34137 ft 506 kts 243°
2026-04-27 06:17 -6.16085 18.87336 34143 ft 506 kts 243°
2026-04-27 06:18 -6.19137 18.81004 34143 ft 506 kts 243°
2026-04-27 06:18 -6.22212 18.74623 34148 ft 507 kts 243°
2026-04-27 06:19 -6.25281 18.68252 34149 ft 506 kts 243°
2026-04-27 06:19 -6.28359 18.61860 34146 ft 507 kts 243°
2026-04-27 06:20 -6.31426 18.55488 34142 ft 508 kts 243°
2026-04-27 06:20 -6.34481 18.49139 34139 ft 507 kts 243°
2026-04-27 06:21 -6.37595 18.42730 34142 ft 509 kts 242°
2026-04-27 06:21 -6.40718 18.36366 34142 ft 509 kts 242°
2026-04-27 06:22 -6.43822 18.30033 34138 ft 507 kts 242°
2026-04-27 06:22 -6.46920 18.23641 34135 ft 509 kts 243°
2026-04-27 06:23 -6.50017 18.17234 34137 ft 509 kts 243°
2026-04-27 06:23 -6.53112 18.10833 34135 ft 510 kts 242°
2026-04-27 06:24 -6.56188 18.04469 34136 ft 510 kts 242°
2026-04-27 06:24 -6.59285 17.98058 34135 ft 510 kts 242°
2026-04-27 06:25 -6.62381 17.91648 34132 ft 509 kts 242°
2026-04-27 06:25 -6.65471 17.85248 34132 ft 510 kts 242°
2026-04-27 06:26 -6.68568 17.78830 34131 ft 510 kts 242°
2026-04-27 06:26 -6.71672 17.72397 34128 ft 511 kts 242°
2026-04-27 06:27 -6.74756 17.66002 34119 ft 509 kts 242°
2026-04-27 06:27 -6.77822 17.59575 34109 ft 509 kts 243°
2026-04-27 06:28 -6.80875 17.53171 34093 ft 510 kts 243°
2026-04-27 06:28 -6.83948 17.46744 34086 ft 510 kts 243°
2026-04-27 06:29 -6.87029 17.40297 34094 ft 511 kts 243°
2026-04-27 06:29 -6.90098 17.33871 34098 ft 510 kts 243°
2026-04-27 06:30 -6.93154 17.27471 34095 ft 509 kts 243°
2026-04-27 06:30 -6.96221 17.21045 34095 ft 510 kts 243°
2026-04-27 06:31 -6.99292 17.14607 34090 ft 509 kts 243°
2026-04-27 06:31 -7.02358 17.08178 34083 ft 509 kts 243°
2026-04-27 06:32 -7.05430 17.01735 34074 ft 510 kts 243°
2026-04-27 06:32 -7.08502 16.95315 34069 ft 509 kts 243°
2026-04-27 06:33 -7.11590 16.88921 34076 ft 510 kts 243°
2026-04-27 06:33 -7.14684 16.82509 34083 ft 510 kts 243°
2026-04-27 06:34 -7.17778 16.76093 34085 ft 510 kts 243°
2026-04-27 06:34 -7.20865 16.69688 34088 ft 510 kts 243°
2026-04-27 06:35 -7.23968 16.63247 34092 ft 510 kts 243°
2026-04-27 06:35 -7.27040 16.56867 34096 ft 509 kts 243°
2026-04-27 06:36 -7.30122 16.50465 34100 ft 510 kts 243°
2026-04-27 06:36 -7.33226 16.44013 34109 ft 510 kts 243°
2026-04-27 06:37 -7.36311 16.37595 34111 ft 510 kts 243°
2026-04-27 06:37 -7.39401 16.31167 34106 ft 510 kts 243°
2026-04-27 06:38 -7.42467 16.24786 34117 ft 508 kts 243°
2026-04-27 06:38 -7.45548 16.18370 34125 ft 509 kts 243°
2026-04-27 06:39 -7.48616 16.11978 34135 ft 509 kts 243°
2026-04-27 06:39 -7.51707 16.05537 34141 ft 509 kts 243°
2026-04-27 06:40 -7.54774 15.99142 34149 ft 509 kts 243°
2026-04-27 06:40 -7.57863 15.92697 34155 ft 510 kts 243°
2026-04-27 06:41 -7.60932 15.86292 34159 ft 509 kts 243°
2026-04-27 06:41 -7.63999 15.79888 34164 ft 509 kts 243°
2026-04-27 06:42 -7.67079 15.73454 34169 ft 509 kts 243°
2026-04-27 06:42 -7.70145 15.67045 34170 ft 510 kts 243°
2026-04-27 06:43 -7.73222 15.60609 34162 ft 509 kts 243°
2026-04-27 06:43 -7.76295 15.54179 34156 ft 509 kts 243°
2026-04-27 06:44 -7.79343 15.47799 34155 ft 507 kts 243°
2026-04-27 06:44 -7.82414 15.41367 34159 ft 508 kts 243°
2026-04-27 06:45 -7.85473 15.34957 34168 ft 509 kts 243°
2026-04-27 06:45 -7.88524 15.28561 34170 ft 508 kts 243°
2026-04-27 06:46 -7.91579 15.22154 34176 ft 509 kts 243°
2026-04-27 06:46 -7.94656 15.15698 34171 ft 507 kts 243°
2026-04-27 06:47 -7.97706 15.09296 34163 ft 507 kts 244°
2026-04-27 06:47 -8.00743 15.02910 34155 ft 507 kts 244°
2026-04-27 06:48 -8.03776 14.96506 34146 ft 508 kts 244°
2026-04-27 06:48 -8.06822 14.90068 34138 ft 508 kts 244°
2026-04-27 06:49 -8.09861 14.83644 34134 ft 506 kts 244°
2026-04-27 06:49 -8.12882 14.77255 34128 ft 508 kts 244°
2026-04-27 06:50 -8.15911 14.70847 34119 ft 507 kts 244°
2026-04-27 06:50 -8.18944 14.64428 34112 ft 507 kts 244°
2026-04-27 06:51 -8.21976 14.58007 34108 ft 507 kts 244°
2026-04-27 06:51 -8.25007 14.51585 34103 ft 507 kts 244°
2026-04-27 06:52 -8.28035 14.45166 34098 ft 506 kts 244°
2026-04-27 06:52 -8.31060 14.38752 34085 ft 506 kts 244°
2026-04-27 06:53 -8.34082 14.32339 34073 ft 507 kts 244°
2026-04-27 06:53 -8.37112 14.25908 34061 ft 507 kts 244°
2026-04-27 06:54 -8.40137 14.19484 34051 ft 508 kts 244°
2026-04-27 06:54 -8.43142 14.13098 34047 ft 507 kts 244°
2026-04-27 06:55 -8.46168 14.06666 34029 ft 507 kts 244°
2026-04-27 06:55 -8.49191 14.00235 34013 ft 507 kts 244°
2026-04-27 06:56 -8.52215 13.93799 34004 ft 507 kts 244°
2026-04-27 06:56 -8.55224 13.87393 33998 ft 507 kts 244°
2026-04-27 06:57 -8.58237 13.80975 33995 ft 507 kts 244°
2026-04-27 06:57 -8.61252 13.74547 33992 ft 507 kts 244°
2026-04-27 06:58 -8.65786 13.64879 33988 ft 506 kts 244°
2026-04-27 06:59 -8.68796 13.58455 33988 ft 507 kts 244°
2026-04-27 06:59 -8.71801 13.52039 33984 ft 506 kts 245°
2026-04-27 07:00 -8.74817 13.45596 33980 ft 507 kts 245°
2026-04-27 07:00 -8.77816 13.39184 33981 ft 505 kts 245°
2026-04-27 07:01 -8.80838 13.32722 33976 ft 507 kts 245°
2026-04-27 07:01 -8.83833 13.26314 33975 ft 506 kts 245°
2026-04-27 07:02 -8.86708 13.19835 33972 ft 506 kts 248°
2026-04-27 07:02 -8.89463 13.13291 33973 ft 504 kts 247°
2026-04-27 07:03 -8.92214 13.06775 33975 ft 504 kts 247°
2026-04-27 07:03 -8.94962 13.00276 33973 ft 505 kts 247°
2026-04-27 07:04 -8.97727 12.93742 33973 ft 504 kts 247°
2026-04-27 07:04 -9.00465 12.87274 33974 ft 504 kts 247°
2026-04-27 07:05 -9.03231 12.80738 33975 ft 504 kts 247°
2026-04-27 07:05 -9.05991 12.74214 33974 ft 505 kts 247°
2026-04-27 07:06 -9.08743 12.67706 33976 ft 505 kts 247°
2026-04-27 07:06 -9.11503 12.61177 33974 ft 505 kts 247°
2026-04-27 07:07 -9.14238 12.54702 33976 ft 505 kts 247°
2026-04-27 07:07 -9.17005 12.48147 33972 ft 504 kts 248°
2026-04-27 07:08 -9.19751 12.41639 33974 ft 504 kts 247°
2026-04-27 07:08 -9.22512 12.35094 33975 ft 506 kts 247°
2026-04-27 07:09 -9.25267 12.28556 33969 ft 506 kts 248°
2026-04-27 07:09 -9.28020 12.22021 33968 ft 505 kts 248°
2026-04-27 07:10 -9.30770 12.15489 33970 ft 507 kts 247°
2026-04-27 07:10 -9.33525 12.08940 33971 ft 505 kts 248°
2026-04-27 07:11 -9.36273 12.02404 33971 ft 507 kts 248°
2026-04-27 07:11 -9.39034 11.95835 33973 ft 505 kts 248°
2026-04-27 07:12 -9.41765 11.89330 33972 ft 505 kts 248°
2026-04-27 07:12 -9.44506 11.82747 33972 ft 506 kts 248°
2026-04-27 07:13 -9.47222 11.76208 33974 ft 506 kts 248°
2026-04-27 07:13 -9.49952 11.69636 33972 ft 506 kts 248°
2026-04-27 07:14 -9.52675 11.63073 33981 ft 505 kts 248°
2026-04-27 07:14 -9.55388 11.56534 33983 ft 505 kts 248°
2026-04-27 07:15 -9.58108 11.49974 33986 ft 505 kts 248°
2026-04-27 07:15 -9.60817 11.43434 33982 ft 505 kts 248°
2026-04-27 07:16 -9.63527 11.36896 33990 ft 505 kts 248°
2026-04-27 07:16 -9.66258 11.30349 33989 ft 506 kts 248°
2026-04-27 07:17 -9.68991 11.23794 33990 ft 505 kts 248°
2026-04-27 07:17 -9.71719 11.17247 33991 ft 504 kts 248°
2026-04-27 07:18 -9.74438 11.10716 33992 ft 505 kts 248°
2026-04-27 07:18 -9.77167 11.04156 33992 ft 504 kts 248°
2026-04-27 07:19 -9.79892 10.97601 33993 ft 503 kts 248°
2026-04-27 07:19 -9.82599 10.91088 33994 ft 505 kts 248°
2026-04-27 07:20 -9.85321 10.84533 33994 ft 504 kts 248°
2026-04-27 07:20 -9.88023 10.78021 33994 ft 503 kts 248°
2026-04-27 07:21 -9.90735 10.71481 33995 ft 504 kts 248°
2026-04-27 07:21 -9.93449 10.64933 33995 ft 503 kts 248°
2026-04-27 07:22 -9.96147 10.58419 33996 ft 504 kts 248°
2026-04-27 07:22 -9.98866 10.51850 33996 ft 502 kts 248°
2026-04-27 07:23 -10.01562 10.45333 33997 ft 502 kts 248°
2026-04-27 07:23 -10.04260 10.38805 33997 ft 501 kts 248°
2026-04-27 07:24 -10.06957 10.32279 33993 ft 502 kts 248°
2026-04-27 07:24 -10.09641 10.25778 33993 ft 501 kts 248°
2026-04-27 07:25 -10.12335 10.19249 33990 ft 501 kts 248°
2026-04-27 07:25 -10.15019 10.12740 33990 ft 501 kts 248°
2026-04-27 07:26 -10.17705 10.06221 33991 ft 501 kts 248°
2026-04-27 07:26 -10.20381 9.99722 33990 ft 500 kts 248°
2026-04-27 07:27 -10.23063 9.93206 33990 ft 500 kts 248°
2026-04-27 07:27 -10.25747 9.86679 33992 ft 500 kts 248°
2026-04-27 07:28 -10.28414 9.80191 33993 ft 500 kts 248°
2026-04-27 07:28 -10.31090 9.73675 33993 ft 500 kts 248°
2026-04-27 07:29 -10.33751 9.67192 33994 ft 500 kts 248°
2026-04-27 07:29 -10.36429 9.60663 33995 ft 500 kts 248°
2026-04-27 07:30 -10.39088 9.54177 33996 ft 500 kts 248°
2026-04-27 07:30 -10.41764 9.47646 33997 ft 501 kts 248°
2026-04-27 07:31 -10.44435 9.41120 33997 ft 500 kts 248°
2026-04-27 07:31 -10.47105 9.34593 33998 ft 500 kts 248°
2026-04-27 07:32 -10.49754 9.28114 33996 ft 499 kts 248°
2026-04-27 07:32 -10.52420 9.21590 33999 ft 500 kts 248°
2026-04-27 07:33 -10.55081 9.15073 34001 ft 500 kts 248°
2026-04-27 07:33 -10.57735 9.08568 34005 ft 501 kts 248°
2026-04-27 07:34 -10.60389 9.02058 34007 ft 500 kts 248°
2026-04-27 07:34 -10.63038 8.95557 34005 ft 499 kts 248°
2026-04-27 07:35 -10.65699 8.89023 34007 ft 499 kts 248°
2026-04-27 07:35 -10.68333 8.82549 34010 ft 498 kts 248°
2026-04-27 07:36 -10.70977 8.76045 34014 ft 500 kts 248°
2026-04-27 07:36 -10.73623 8.69535 34015 ft 499 kts 248°
2026-04-27 07:37 -10.76277 8.62998 34016 ft 498 kts 249°
2026-04-27 07:37 -10.78914 8.56499 34016 ft 498 kts 249°
2026-04-27 07:38 -10.81536 8.50034 34019 ft 497 kts 249°
2026-04-27 07:38 -10.84172 8.43529 34016 ft 498 kts 249°
2026-04-27 07:39 -10.86810 8.37015 34019 ft 498 kts 249°
2026-04-27 07:39 -10.89444 8.30505 34014 ft 497 kts 249°
2026-04-27 07:40 -10.92061 8.24036 34014 ft 497 kts 249°
2026-04-27 07:40 -10.94681 8.17552 34018 ft 496 kts 249°
2026-04-27 07:41 -10.97303 8.11059 34016 ft 495 kts 249°
2026-04-27 07:41 -10.99905 8.04611 34018 ft 495 kts 249°
2026-04-27 07:42 -11.02542 7.98060 34444 ft 499 kts 249°
2026-04-27 07:42 -11.03849 7.94812 35007 ft 494 kts 249°
2026-04-27 07:42 -11.05138 7.91604 35505 ft 491 kts 249°
2026-04-27 07:42 -11.06437 7.88373 35862 ft 490 kts 249°
2026-04-27 07:43 -11.07714 7.85195 36018 ft 491 kts 249°
2026-04-27 07:43 -11.10305 7.78741 36011 ft 492 kts 249°
2026-04-27 07:44 -11.12898 7.72281 36010 ft 492 kts 249°
2026-04-27 07:44 -11.15471 7.65864 36010 ft 492 kts 249°
2026-04-27 07:45 -11.18065 7.59390 36011 ft 493 kts 249°
2026-04-27 07:45 -11.20648 7.52941 36010 ft 492 kts 249°
2026-04-27 07:46 -11.23220 7.46513 36011 ft 493 kts 249°
2026-04-27 07:46 -11.25815 7.40024 36012 ft 493 kts 249°
2026-04-27 07:47 -11.28380 7.33607 36011 ft 492 kts 250°
2026-04-27 07:47 -11.30962 7.27141 36010 ft 492 kts 250°
2026-04-27 07:48 -11.33534 7.20695 36011 ft 493 kts 250°
2026-04-27 07:48 -11.36113 7.14229 36011 ft 493 kts 250°
2026-04-27 07:49 -11.38685 7.07773 36014 ft 493 kts 250°
2026-04-27 07:49 -11.41262 7.01301 36020 ft 492 kts 250°
2026-04-27 07:50 -11.43840 6.94822 36022 ft 493 kts 250°
2026-04-27 07:50 -11.46397 6.88392 36022 ft 492 kts 250°
2026-04-27 07:51 -11.48978 6.81896 36022 ft 493 kts 250°
2026-04-27 07:51 -11.51533 6.75459 36024 ft 493 kts 250°
2026-04-27 07:52 -11.54112 6.68959 36025 ft 492 kts 250°
2026-04-27 07:52 -11.56657 6.62539 36026 ft 492 kts 250°
2026-04-27 07:53 -11.59220 6.56069 36027 ft 492 kts 250°
2026-04-27 07:53 -11.61775 6.49615 36027 ft 491 kts 250°
2026-04-27 07:54 -11.64314 6.43195 36029 ft 491 kts 250°
2026-04-27 07:54 -11.66875 6.36717 36029 ft 491 kts 250°
2026-04-27 07:55 -11.69416 6.30283 36028 ft 490 kts 250°
2026-04-27 07:55 -11.71955 6.23850 36028 ft 491 kts 250°
2026-04-27 07:56 -11.74497 6.17405 36031 ft 490 kts 250°
2026-04-27 07:56 -11.77044 6.10940 36034 ft 490 kts 250°
2026-04-27 07:57 -11.79573 6.04518 36035 ft 489 kts 250°
2026-04-27 07:57 -11.82103 5.98087 36035 ft 489 kts 250°
2026-04-27 07:58 -11.84634 5.91650 36036 ft 489 kts 250°
2026-04-27 07:58 -11.87148 5.85250 36036 ft 489 kts 250°
2026-04-27 07:59 -11.89673 5.78819 36037 ft 488 kts 250°
2026-04-27 07:59 -11.93455 5.69178 36037 ft 487 kts 250°
2026-04-27 08:00 -11.95964 5.62774 36036 ft 485 kts 250°
2026-04-27 08:00 -11.98460 5.56400 36037 ft 486 kts 250°
2026-04-27 08:01 -12.00969 5.49986 36037 ft 485 kts 250°
2026-04-27 08:01 -12.03461 5.43612 36036 ft 485 kts 250°
2026-04-27 08:02 -12.05960 5.37213 36036 ft 484 kts 250°
2026-04-27 08:02 -12.08449 5.30839 36038 ft 483 kts 250°
2026-04-27 08:03 -12.10933 5.24467 36033 ft 483 kts 250°
2026-04-27 08:03 -12.13398 5.18143 36034 ft 483 kts 251°
2026-04-27 08:04 -12.15889 5.11746 36033 ft 482 kts 250°
2026-04-27 08:04 -12.18349 5.05424 36035 ft 482 kts 251°
2026-04-27 08:05 -12.20833 4.99037 36032 ft 482 kts 250°
2026-04-27 08:05 -12.23322 4.92688 36038 ft 482 kts 250°
2026-04-27 08:06 -12.25804 4.86357 36039 ft 482 kts 250°
2026-04-27 08:06 -12.28300 4.79981 36037 ft 482 kts 250°
2026-04-27 08:07 -12.30777 4.73648 36037 ft 482 kts 250°
2026-04-27 08:07 -12.33274 4.67260 36039 ft 482 kts 250°
2026-04-27 08:08 -12.35750 4.60922 36040 ft 483 kts 250°
2026-04-27 08:08 -12.38226 4.54576 36040 ft 483 kts 250°
2026-04-27 08:09 -12.40707 4.48213 36038 ft 483 kts 250°
2026-04-27 08:09 -12.43197 4.41822 36037 ft 482 kts 250°
2026-04-27 08:10 -12.45670 4.35470 36040 ft 483 kts 250°
2026-04-27 08:10 -12.48146 4.29073 36045 ft 483 kts 251°
2026-04-27 08:11 -12.50606 4.22680 36042 ft 483 kts 251°
2026-04-27 08:11 -12.53053 4.16321 36047 ft 482 kts 251°
2026-04-27 08:12 -12.55502 4.09953 36041 ft 482 kts 251°
2026-04-27 08:12 -12.57954 4.03572 36045 ft 483 kts 251°
2026-04-27 08:13 -12.60418 3.97155 36043 ft 482 kts 251°
2026-04-27 08:13 -12.62861 3.90786 36047 ft 482 kts 251°
2026-04-27 08:14 -12.65310 3.84399 36046 ft 483 kts 251°
2026-04-27 08:14 -12.67758 3.78008 36048 ft 482 kts 251°
2026-04-27 08:15 -12.70203 3.71620 36051 ft 483 kts 251°
2026-04-27 08:15 -12.72648 3.65225 36046 ft 483 kts 251°
2026-04-27 08:16 -12.75080 3.58861 36049 ft 482 kts 251°
2026-04-27 08:16 -12.77529 3.52447 36049 ft 482 kts 251°
2026-04-27 08:17 -12.79958 3.46080 36047 ft 482 kts 251°
2026-04-27 08:17 -12.82401 3.39669 36054 ft 482 kts 251°
2026-04-27 08:18 -12.84831 3.33289 36054 ft 482 kts 251°
2026-04-27 08:18 -12.87274 3.26869 36055 ft 482 kts 251°
2026-04-27 08:19 -12.89704 3.20480 36056 ft 482 kts 251°
2026-04-27 08:19 -12.92127 3.14100 36054 ft 483 kts 251°
2026-04-27 08:20 -12.94561 3.07688 36055 ft 483 kts 251°
2026-04-27 08:20 -12.96992 3.01278 36057 ft 484 kts 251°
2026-04-27 08:21 -12.99429 2.94849 36055 ft 483 kts 251°
2026-04-27 08:21 -13.01855 2.88441 36057 ft 482 kts 251°
2026-04-27 08:22 -13.04273 2.82050 36057 ft 482 kts 251°
2026-04-27 08:22 -13.06674 2.75697 36057 ft 481 kts 251°
2026-04-27 08:23 -13.09106 2.69259 36057 ft 481 kts 251°
2026-04-27 08:23 -13.11511 2.62885 36051 ft 480 kts 251°
2026-04-27 08:24 -13.13905 2.56534 36050 ft 479 kts 251°
2026-04-27 08:24 -13.16297 2.50185 36050 ft 479 kts 251°
2026-04-27 08:25 -13.18691 2.43825 36050 ft 478 kts 251°
2026-04-27 08:25 -13.21091 2.37443 36055 ft 478 kts 251°
2026-04-27 08:26 -13.23464 2.31127 36062 ft 478 kts 251°
2026-04-27 08:26 -13.25851 2.24770 36064 ft 477 kts 251°
2026-04-27 08:27 -13.28227 2.18437 36059 ft 476 kts 251°
2026-04-27 08:27 -13.30603 2.12096 36062 ft 476 kts 251°
2026-04-27 08:28 -13.32980 2.05748 36061 ft 475 kts 251°
2026-04-27 08:28 -13.35336 1.99453 36065 ft 474 kts 251°
2026-04-27 08:29 -13.37700 1.93128 36072 ft 475 kts 251°
2026-04-27 08:29 -13.40056 1.86820 36073 ft 474 kts 251°
2026-04-27 08:30 -13.42410 1.80513 36074 ft 474 kts 251°
2026-04-27 08:30 -13.44761 1.74206 36074 ft 474 kts 251°
2026-04-27 08:31 -13.47123 1.67868 36073 ft 474 kts 251°
2026-04-27 08:31 -13.49483 1.61526 36073 ft 473 kts 251°
2026-04-27 08:32 -13.51820 1.55243 36073 ft 474 kts 251°
2026-04-27 08:32 -13.54165 1.48931 36074 ft 473 kts 251°
2026-04-27 08:33 -13.56498 1.42646 36073 ft 474 kts 251°
2026-04-27 08:33 -13.58840 1.36334 36069 ft 473 kts 251°
2026-04-27 08:34 -13.61177 1.30027 36071 ft 473 kts 251°
2026-04-27 08:34 -13.63513 1.23718 36071 ft 473 kts 251°
2026-04-27 08:35 -13.65853 1.17392 36072 ft 473 kts 251°
2026-04-27 08:35 -13.68179 1.11100 36073 ft 472 kts 251°
2026-04-27 08:36 -13.70503 1.04806 36070 ft 472 kts 251°
2026-04-27 08:36 -13.72839 0.98476 36069 ft 472 kts 252°
2026-04-27 08:37 -13.75155 0.92195 36073 ft 472 kts 252°
2026-04-27 08:37 -13.77473 0.85899 36071 ft 472 kts 251°
2026-04-27 08:38 -13.79802 0.79573 36071 ft 472 kts 251°
2026-04-27 08:38 -13.82108 0.73300 36070 ft 473 kts 251°
2026-04-27 08:39 -13.84437 0.66959 36071 ft 473 kts 251°
2026-04-27 08:39 -13.86755 0.60642 36072 ft 473 kts 252°
2026-04-27 08:40 -13.89072 0.54323 36070 ft 474 kts 251°
2026-04-27 08:40 -13.91387 0.48005 36073 ft 473 kts 251°
2026-04-27 08:41 -13.93693 0.41704 36074 ft 471 kts 252°
2026-04-27 08:41 -13.96016 0.35354 36074 ft 473 kts 252°
2026-04-27 08:42 -13.98317 0.29053 36077 ft 474 kts 252°
2026-04-27 08:42 -14.00638 0.22695 36076 ft 474 kts 252°
2026-04-27 08:43 -14.02950 0.16356 36077 ft 474 kts 252°
2026-04-27 08:43 -14.05258 0.10021 36078 ft 474 kts 252°
2026-04-27 08:44 -14.07574 0.03659 36078 ft 474 kts 252°
2026-04-27 08:44 -14.09881 -0.02683 36078 ft 474 kts 252°
2026-04-27 08:45 -14.12187 -0.09026 36070 ft 473 kts 252°
2026-04-27 08:45 -14.14495 -0.15378 36072 ft 474 kts 252°
2026-04-27 08:46 -14.16803 -0.21738 36073 ft 474 kts 252°
2026-04-27 08:46 -14.19110 -0.28100 36071 ft 475 kts 252°
2026-04-27 08:47 -14.21408 -0.34445 36071 ft 474 kts 252°
2026-04-27 08:47 -14.23714 -0.40815 36071 ft 474 kts 252°
2026-04-27 08:48 -14.26008 -0.47160 36072 ft 474 kts 252°
2026-04-27 08:48 -14.28308 -0.53528 36071 ft 474 kts 252°
2026-04-27 08:49 -14.30609 -0.59903 36071 ft 474 kts 252°
2026-04-27 08:49 -14.32889 -0.66226 36074 ft 474 kts 252°
2026-04-27 08:50 -14.35188 -0.72609 36075 ft 474 kts 252°
2026-04-27 08:50 -14.37482 -0.78983 36075 ft 475 kts 252°
2026-04-27 08:51 -14.39772 -0.85353 36075 ft 475 kts 252°
2026-04-27 08:51 -14.42068 -0.91744 36075 ft 475 kts 252°
2026-04-27 08:52 -14.44348 -0.98097 36074 ft 474 kts 252°
2026-04-27 08:52 -14.46646 -1.04507 36074 ft 475 kts 252°
2026-04-27 08:53 -14.48926 -1.10873 36074 ft 474 kts 252°
2026-04-27 08:53 -14.51197 -1.17221 36074 ft 474 kts 252°
2026-04-27 08:54 -14.53472 -1.23585 36074 ft 474 kts 252°
2026-04-27 08:54 -14.55757 -1.29984 36074 ft 475 kts 252°
2026-04-27 08:55 -14.58044 -1.36392 36074 ft 475 kts 252°
2026-04-27 08:55 -14.60314 -1.42761 36073 ft 475 kts 252°
2026-04-27 08:56 -14.62579 -1.49120 36073 ft 473 kts 252°
2026-04-27 08:56 -14.64843 -1.55485 36073 ft 474 kts 252°
2026-04-27 08:57 -14.68253 -1.65082 36073 ft 473 kts 253°
2026-04-27 08:58 -14.70499 -1.71412 36077 ft 474 kts 253°
2026-04-27 08:58 -14.72763 -1.77799 36077 ft 474 kts 253°
2026-04-27 08:59 -14.75032 -1.84203 36076 ft 473 kts 253°
2026-04-27 08:59 -14.77279 -1.90553 36077 ft 473 kts 253°
2026-04-27 09:00 -14.79538 -1.96945 36078 ft 474 kts 253°
2026-04-27 09:00 -14.81790 -2.03323 36076 ft 474 kts 253°
2026-04-27 09:01 -14.84049 -2.09722 36077 ft 472 kts 253°
2026-04-27 09:01 -14.86275 -2.16040 36077 ft 472 kts 253°
2026-04-27 09:02 -14.88518 -2.22412 36076 ft 472 kts 253°
2026-04-27 09:02 -14.90770 -2.28813 36078 ft 473 kts 253°
2026-04-27 09:03 -14.93004 -2.35169 36087 ft 472 kts 253°
2026-04-27 09:03 -14.95246 -2.41554 36096 ft 471 kts 253°
2026-04-27 09:04 -14.97474 -2.47908 36096 ft 472 kts 253°
2026-04-27 09:04 -14.99697 -2.54255 36096 ft 471 kts 253°
2026-04-27 09:05 -15.01932 -2.60639 36096 ft 472 kts 253°
2026-04-27 09:05 -15.04150 -2.66982 36101 ft 471 kts 253°
2026-04-27 09:06 -15.06374 -2.73348 36100 ft 471 kts 253°
2026-04-27 09:06 -15.08590 -2.79698 36101 ft 471 kts 253°
2026-04-27 09:07 -15.10820 -2.86097 36092 ft 472 kts 254°
2026-04-27 09:07 -15.13034 -2.92456 36092 ft 472 kts 254°
2026-04-27 09:08 -15.15253 -2.98833 36092 ft 471 kts 253°
2026-04-27 09:08 -15.17465 -3.05197 36092 ft 471 kts 254°
2026-04-27 09:09 -15.19675 -3.11565 36091 ft 471 kts 253°
2026-04-27 09:09 -15.21898 -3.17975 36092 ft 473 kts 253°
2026-04-27 09:10 -15.24110 -3.24357 36092 ft 471 kts 254°
2026-04-27 09:10 -15.26310 -3.30714 36092 ft 471 kts 254°
2026-04-27 09:11 -15.28517 -3.37097 36090 ft 470 kts 254°
2026-04-27 09:11 -15.30706 -3.43432 36090 ft 468 kts 254°
2026-04-27 09:12 -15.32902 -3.49797 36091 ft 469 kts 253°
2026-04-27 09:12 -15.35082 -3.56121 36090 ft 468 kts 254°
2026-04-27 09:13 -15.37273 -3.62484 36090 ft 469 kts 253°
2026-04-27 09:13 -15.39448 -3.68808 36097 ft 468 kts 254°
2026-04-27 09:14 -15.41629 -3.75154 36096 ft 469 kts 254°
2026-04-27 09:14 -15.43819 -3.81533 36096 ft 467 kts 254°
2026-04-27 09:15 -15.45990 -3.87865 36096 ft 468 kts 254°
2026-04-27 09:15 -15.48164 -3.94210 36096 ft 466 kts 254°
2026-04-27 09:16 -15.50318 -4.00504 36095 ft 466 kts 254°
2026-04-27 09:16 -15.52482 -4.06835 36094 ft 465 kts 254°
2026-04-27 09:17 -15.54639 -4.13152 36095 ft 465 kts 254°
2026-04-27 09:17 -15.56793 -4.19464 36096 ft 465 kts 255°
2026-04-27 09:18 -15.58938 -4.25758 36094 ft 465 kts 255°
2026-04-27 09:18 -15.61083 -4.32060 36094 ft 465 kts 255°
2026-04-27 09:19 -15.63222 -4.38351 36094 ft 465 kts 255°
2026-04-27 09:19 -15.65377 -4.44692 36094 ft 464 kts 255°
2026-04-27 09:20 -15.67510 -4.50978 36093 ft 463 kts 255°
2026-04-27 09:20 -15.69638 -4.57256 36091 ft 463 kts 255°
2026-04-27 09:21 -15.71764 -4.63533 36092 ft 462 kts 255°
2026-04-27 09:21 -15.73884 -4.69802 36099 ft 463 kts 255°
2026-04-27 09:22 -15.76015 -4.76105 36100 ft 462 kts 255°
2026-04-27 09:22 -15.78128 -4.82365 36100 ft 462 kts 255°
2026-04-27 09:23 -15.80244 -4.88641 36100 ft 460 kts 255°
2026-04-27 09:23 -15.82360 -4.94921 36098 ft 461 kts 256°
2026-04-27 09:24 -15.84481 -5.01221 36098 ft 461 kts 255°
2026-04-27 09:24 -15.86610 -5.07470 36097 ft 460 kts 255°
2026-04-27 09:25 -15.88736 -5.13716 36098 ft 461 kts 255°
2026-04-27 09:25 -15.90868 -5.19988 36097 ft 461 kts 255°
2026-04-27 09:26 -15.92990 -5.26235 36097 ft 461 kts 255°
2026-04-27 09:26 -15.95123 -5.32525 36096 ft 459 kts 255°
2026-04-27 09:27 -15.97230 -5.38743 36097 ft 460 kts 255°
2026-04-27 09:27 -15.99350 -5.45009 36097 ft 460 kts 255°
2026-04-27 09:28 -16.01464 -5.51262 36095 ft 459 kts 255°
2026-04-27 09:28 -16.03579 -5.57526 36099 ft 459 kts 255°
2026-04-27 09:29 -16.05694 -5.63796 36104 ft 460 kts 255°
2026-04-27 09:29 -16.07799 -5.70041 36119 ft 458 kts 256°
2026-04-27 09:30 -16.09893 -5.76264 36121 ft 459 kts 256°
2026-04-27 09:30 -16.11994 -5.82513 36103 ft 459 kts 256°
2026-04-27 09:31 -16.14105 -5.88798 36100 ft 460 kts 256°
2026-04-27 09:31 -16.16202 -5.95050 36097 ft 459 kts 256°
2026-04-27 09:32 -16.18298 -6.01303 36095 ft 459 kts 256°
2026-04-27 09:32 -16.20390 -6.07554 36097 ft 458 kts 256°
2026-04-27 09:33 -16.22486 -6.13820 36095 ft 458 kts 256°
2026-04-27 09:33 -16.24576 -6.20076 36095 ft 458 kts 256°
2026-04-27 09:34 -16.26659 -6.26318 36097 ft 458 kts 256°
2026-04-27 09:34 -16.28730 -6.32531 36095 ft 457 kts 256°
2026-04-27 09:35 -16.30815 -6.38794 36097 ft 458 kts 256°
2026-04-27 09:35 -16.32886 -6.45021 36096 ft 457 kts 256°
2026-04-27 09:36 -16.34960 -6.51263 36096 ft 456 kts 256°
2026-04-27 09:36 -16.37031 -6.57503 36096 ft 456 kts 256°
2026-04-27 09:37 -16.39095 -6.63729 36098 ft 455 kts 256°
2026-04-27 09:37 -16.41150 -6.69936 36107 ft 456 kts 256°
2026-04-27 09:38 -16.43212 -6.76171 36105 ft 455 kts 256°
2026-04-27 09:38 -16.45273 -6.82407 36107 ft 454 kts 256°
2026-04-27 09:39 -16.47313 -6.88588 36107 ft 455 kts 256°
2026-04-27 09:39 -16.49369 -6.94824 36107 ft 453 kts 256°
2026-04-27 09:40 -16.51410 -7.01023 36106 ft 455 kts 256°
2026-04-27 09:40 -16.53457 -7.07245 36106 ft 454 kts 256°
2026-04-27 09:41 -16.55492 -7.13438 36104 ft 453 kts 256°
2026-04-27 09:41 -16.57533 -7.19658 36102 ft 453 kts 256°
2026-04-27 09:42 -16.59562 -7.25846 36103 ft 452 kts 256°
2026-04-27 09:42 -16.61583 -7.32017 36100 ft 451 kts 256°
2026-04-27 09:43 -16.63602 -7.38190 36101 ft 454 kts 256°
2026-04-27 09:43 -16.65635 -7.44411 36100 ft 453 kts 256°
2026-04-27 09:44 -16.67659 -7.50611 36100 ft 452 kts 256°
2026-04-27 09:44 -16.69677 -7.56800 36096 ft 452 kts 256°
2026-04-27 09:45 -16.71696 -7.63001 36096 ft 453 kts 256°
2026-04-27 09:45 -16.73715 -7.69208 36103 ft 452 kts 256°
2026-04-27 09:46 -16.75730 -7.75409 36104 ft 453 kts 256°
2026-04-27 09:46 -16.77740 -7.81602 36103 ft 453 kts 256°
2026-04-27 09:47 -16.79740 -7.87771 36102 ft 453 kts 256°
2026-04-27 09:47 -16.81760 -7.94008 36101 ft 451 kts 256°
2026-04-27 09:48 -16.83762 -8.00199 36100 ft 453 kts 256°
2026-04-27 09:48 -16.85770 -8.06413 36098 ft 452 kts 256°
2026-04-27 09:49 -16.87770 -8.12611 36097 ft 450 kts 256°
2026-04-27 09:49 -16.89770 -8.18829 36095 ft 452 kts 256°
2026-04-27 09:50 -16.91694 -8.25029 36096 ft 451 kts 257°
2026-04-27 09:50 -16.93614 -8.31231 36096 ft 451 kts 257°
2026-04-27 09:51 -16.95550 -8.37488 36096 ft 452 kts 256°
2026-04-27 09:51 -16.97477 -8.43715 36095 ft 450 kts 257°
2026-04-27 09:52 -16.99399 -8.49936 36094 ft 452 kts 256°
2026-04-27 09:52 -17.01313 -8.56134 36094 ft 450 kts 257°
2026-04-27 09:53 -17.03227 -8.62340 36093 ft 450 kts 257°
2026-04-27 09:53 -17.05135 -8.68535 36103 ft 449 kts 257°
2026-04-27 09:54 -17.07054 -8.74773 36101 ft 451 kts 257°
2026-04-27 09:54 -17.08968 -8.80997 36106 ft 448 kts 257°
2026-04-27 09:55 -17.10871 -8.87199 36093 ft 451 kts 257°
2026-04-27 09:55 -17.13731 -8.96532 36093 ft 451 kts 257°
2026-04-27 09:56 -17.15630 -9.02738 36097 ft 451 kts 257°
2026-04-27 09:56 -17.17537 -9.08977 36092 ft 450 kts 257°
2026-04-27 09:57 -17.19426 -9.15163 36098 ft 449 kts 257°
2026-04-27 09:57 -17.21326 -9.21394 36089 ft 449 kts 257°
2026-04-27 09:58 -17.23213 -9.27590 36092 ft 448 kts 257°
2026-04-27 09:58 -17.25106 -9.33813 36095 ft 449 kts 257°
2026-04-27 09:59 -17.26995 -9.40030 36093 ft 448 kts 257°
2026-04-27 09:59 -17.28873 -9.46221 36092 ft 448 kts 257°
2026-04-27 10:00 -17.30755 -9.52431 36090 ft 448 kts 257°
2026-04-27 10:00 -17.32628 -9.58618 36093 ft 449 kts 257°
2026-04-27 10:01 -17.34508 -9.64835 36091 ft 449 kts 257°
2026-04-27 10:01 -17.36385 -9.71050 36099 ft 447 kts 258°
2026-04-27 10:02 -17.38256 -9.77255 36104 ft 447 kts 258°
2026-04-27 10:02 -17.40126 -9.83464 36105 ft 449 kts 258°
2026-04-27 10:03 -17.41990 -9.89657 36101 ft 448 kts 258°
2026-04-27 10:03 -17.43858 -9.95876 36102 ft 448 kts 258°
2026-04-27 10:04 -17.45689 -10.02100 36099 ft 447 kts 260°
2026-04-27 10:04 -17.47260 -10.08343 36104 ft 446 kts 261°
2026-04-27 10:05 -17.48838 -10.14621 36106 ft 444 kts 260°
2026-04-27 10:05 -17.50408 -10.20836 36102 ft 445 kts 260°
2026-04-27 10:06 -17.51984 -10.27068 36104 ft 443 kts 260°
2026-04-27 10:06 -17.53564 -10.33320 36106 ft 443 kts 260°
2026-04-27 10:07 -17.55135 -10.39535 36106 ft 442 kts 260°
2026-04-27 10:07 -17.56707 -10.45763 36102 ft 445 kts 259°
2026-04-27 10:08 -17.58279 -10.51993 36103 ft 443 kts 260°
2026-04-27 10:08 -17.59850 -10.58233 36102 ft 443 kts 259°
2026-04-27 10:09 -17.61413 -10.64447 36102 ft 443 kts 259°
2026-04-27 10:09 -17.62970 -10.70642 36112 ft 441 kts 260°
2026-04-27 10:10 -17.64539 -10.76899 36114 ft 442 kts 260°
2026-04-27 10:10 -17.66092 -10.83104 36115 ft 441 kts 260°
2026-04-27 10:11 -17.67643 -10.89304 36110 ft 443 kts 260°
2026-04-27 10:11 -17.69204 -10.95553 36113 ft 442 kts 260°
2026-04-27 10:12 -17.70743 -11.01724 36113 ft 440 kts 260°
2026-04-27 10:12 -17.72294 -11.07953 36112 ft 441 kts 259°
2026-04-27 10:13 -17.73833 -11.14141 36113 ft 441 kts 259°
2026-04-27 10:13 -17.75374 -11.20347 36111 ft 441 kts 259°
2026-04-27 10:14 -17.76913 -11.26557 36111 ft 441 kts 259°
2026-04-27 10:14 -17.78453 -11.32775 36109 ft 442 kts 259°
2026-04-27 10:15 -17.80000 -11.39034 36109 ft 442 kts 259°
2026-04-27 10:15 -17.81534 -11.45246 36106 ft 440 kts 259°
2026-04-27 10:16 -17.83060 -11.51435 36109 ft 440 kts 259°
2026-04-27 10:16 -17.84583 -11.57625 36104 ft 440 kts 259°
2026-04-27 10:17 -17.86112 -11.63843 36107 ft 441 kts 259°
2026-04-27 10:17 -17.87633 -11.70039 36117 ft 439 kts 259°
2026-04-27 10:18 -17.89159 -11.76267 36118 ft 440 kts 259°
2026-04-27 10:18 -17.90677 -11.82468 36112 ft 440 kts 259°
2026-04-27 10:19 -17.92199 -11.88697 36118 ft 442 kts 259°
2026-04-27 10:19 -17.93712 -11.94895 36121 ft 439 kts 259°
2026-04-27 10:20 -17.95218 -12.01078 36116 ft 439 kts 259°
2026-04-27 10:20 -17.96731 -12.07297 36121 ft 437 kts 259°
2026-04-27 10:21 -17.98228 -12.13457 36121 ft 438 kts 259°
2026-04-27 10:21 -17.99734 -12.19670 36111 ft 441 kts 258°
2026-04-27 10:22 -18.01238 -12.25877 36113 ft 439 kts 258°
2026-04-27 10:22 -18.02737 -12.32073 36115 ft 439 kts 258°
2026-04-27 10:23 -18.04243 -12.38309 36114 ft 439 kts 258°
2026-04-27 10:23 -18.05736 -12.44502 36116 ft 439 kts 258°
2026-04-27 10:24 -18.07238 -12.50740 36113 ft 439 kts 258°
2026-04-27 10:24 -18.08728 -12.56935 36112 ft 439 kts 258°
2026-04-27 10:25 -18.10213 -12.63124 36111 ft 440 kts 258°
2026-04-27 10:25 -18.11696 -12.69309 36120 ft 439 kts 258°
2026-04-27 10:26 -18.13184 -12.75530 36118 ft 437 kts 258°
2026-04-27 10:26 -18.14667 -12.81737 36119 ft 440 kts 258°
2026-04-27 10:27 -18.16144 -12.87924 36121 ft 437 kts 258°
2026-04-27 10:27 -18.17616 -12.94101 36118 ft 438 kts 258°
2026-04-27 10:28 -18.19099 -13.00335 36120 ft 437 kts 258°
2026-04-27 10:28 -18.20565 -13.06511 36116 ft 437 kts 258°
2026-04-27 10:29 -18.22035 -13.12709 36116 ft 438 kts 258°
2026-04-27 10:29 -18.23509 -13.18932 36120 ft 440 kts 258°
2026-04-27 10:30 -18.24978 -13.25145 36119 ft 439 kts 258°
2026-04-27 10:30 -18.26449 -13.31374 36117 ft 439 kts 258°
2026-04-27 10:31 -18.27911 -13.37580 36116 ft 439 kts 258°
2026-04-27 10:31 -18.29376 -13.43802 36115 ft 440 kts 258°
2026-04-27 10:32 -18.30832 -13.49998 36116 ft 437 kts 257°
2026-04-27 10:32 -18.32297 -13.56244 36117 ft 440 kts 257°
2026-04-27 10:33 -18.33756 -13.62469 36112 ft 439 kts 257°
2026-04-27 10:33 -18.35220 -13.68727 36123 ft 442 kts 257°
2026-04-27 10:34 -18.36674 -13.74956 36124 ft 441 kts 257°
2026-04-27 10:34 -18.38137 -13.81227 36125 ft 441 kts 257°
2026-04-27 10:35 -18.39596 -13.87497 36125 ft 442 kts 257°
2026-04-27 10:35 -18.41052 -13.93760 36126 ft 441 kts 257°
2026-04-27 10:36 -18.42504 -14.00018 36130 ft 443 kts 257°
2026-04-27 10:36 -18.43954 -14.06276 36125 ft 442 kts 257°
2026-04-27 10:37 -18.45408 -14.12559 36123 ft 441 kts 257°
2026-04-27 10:37 -18.46852 -14.18811 36125 ft 441 kts 257°
2026-04-27 10:38 -18.48293 -14.25062 36123 ft 442 kts 257°
2026-04-27 10:38 -18.49746 -14.31370 36123 ft 442 kts 257°
2026-04-27 10:39 -18.51184 -14.37625 36119 ft 441 kts 257°
2026-04-27 10:39 -18.52630 -14.43928 36120 ft 443 kts 256°
2026-04-27 10:40 -18.54066 -14.50193 36120 ft 442 kts 256°
2026-04-27 10:40 -18.55501 -14.56469 36118 ft 443 kts 256°
2026-04-27 10:41 -18.56947 -14.62800 36119 ft 443 kts 256°
2026-04-27 10:41 -18.58382 -14.69093 36133 ft 444 kts 256°
2026-04-27 10:42 -18.59815 -14.75388 36131 ft 442 kts 256°
2026-04-27 10:42 -18.61248 -14.81691 36134 ft 444 kts 256°
2026-04-27 10:43 -18.62670 -14.87960 36130 ft 442 kts 256°
2026-04-27 10:43 -18.64097 -14.94257 36131 ft 444 kts 256°
2026-04-27 10:44 -18.65530 -15.00592 36128 ft 445 kts 256°
2026-04-27 10:44 -18.66953 -15.06896 36132 ft 443 kts 256°
2026-04-27 10:45 -18.68375 -15.13206 36130 ft 444 kts 256°
2026-04-27 10:45 -18.69802 -15.19547 36125 ft 441 kts 255°
2026-04-27 10:46 -18.71218 -15.25846 36128 ft 444 kts 255°
2026-04-27 10:46 -18.72629 -15.32138 36130 ft 443 kts 255°
2026-04-27 10:47 -18.74047 -15.38468 36127 ft 442 kts 255°
2026-04-27 10:47 -18.75459 -15.44787 36132 ft 443 kts 255°
2026-04-27 10:48 -18.76857 -15.51051 36129 ft 442 kts 255°
2026-04-27 10:48 -18.78264 -15.57366 36128 ft 441 kts 255°
2026-04-27 10:49 -18.79671 -15.63692 36124 ft 443 kts 255°
2026-04-27 10:49 -18.81074 -15.70010 36137 ft 444 kts 255°
2026-04-27 10:50 -18.82477 -15.76337 36134 ft 444 kts 255°
2026-04-27 10:50 -18.83873 -15.82682 36326 ft 449 kts 255°
2026-04-27 10:51 -18.84576 -15.85896 36835 ft 445 kts 255°
2026-04-27 10:51 -18.85268 -15.89063 37241 ft 442 kts 256°
2026-04-27 10:51 -18.85950 -15.92186 37500 ft 441 kts 256°
2026-04-27 10:51 -18.86638 -15.95338 37670 ft 443 kts 256°
2026-04-27 10:52 -18.87330 -15.98512 37871 ft 443 kts 256°
2026-04-27 10:52 -18.88012 -16.01643 38100 ft 442 kts 256°
2026-04-27 10:52 -18.89400 -16.08019 38135 ft 443 kts 256°
2026-04-27 10:53 -18.91449 -16.17452 38127 ft 442 kts 255°
2026-04-27 10:54 -18.92826 -16.23801 38134 ft 444 kts 255°
2026-04-27 10:54 -18.94193 -16.30121 38130 ft 443 kts 255°
2026-04-27 10:55 -18.95565 -16.36473 38124 ft 441 kts 255°
2026-04-27 10:55 -18.96920 -16.42755 38126 ft 442 kts 255°
2026-04-27 10:56 -18.98284 -16.49091 38134 ft 441 kts 255°
2026-04-27 10:56 -18.99636 -16.55384 38133 ft 440 kts 255°
2026-04-27 10:57 -19.00985 -16.61670 38134 ft 441 kts 254°
2026-04-27 10:57 -19.02340 -16.67996 38134 ft 442 kts 255°
2026-04-27 10:58 -19.03687 -16.74298 38138 ft 439 kts 254°
2026-04-27 10:58 -19.05028 -16.80583 38143 ft 440 kts 254°
2026-04-27 10:59 -19.06369 -16.86878 38132 ft 439 kts 254°
2026-04-27 10:59 -19.07706 -16.93164 38135 ft 439 kts 254°
2026-04-27 11:00 -19.09706 -17.02588 38143 ft 439 kts 254°
2026-04-27 11:00 -19.11025 -17.08819 38142 ft 437 kts 254°
2026-04-27 11:01 -19.12356 -17.15115 38138 ft 437 kts 253°
2026-04-27 11:01 -19.13668 -17.21334 38156 ft 438 kts 253°
2026-04-27 11:02 -19.14990 -17.27610 38140 ft 439 kts 253°
2026-04-27 11:02 -19.16311 -17.33895 38143 ft 437 kts 253°
2026-04-27 11:03 -19.17625 -17.40157 38133 ft 435 kts 253°
2026-04-27 11:03 -19.18930 -17.46387 38134 ft 436 kts 253°
2026-04-27 11:04 -19.20244 -17.52666 38147 ft 437 kts 252°
2026-04-27 11:04 -19.21541 -17.58885 38133 ft 434 kts 252°
2026-04-27 11:05 -19.22844 -17.65136 38145 ft 435 kts 252°
2026-04-27 11:05 -19.24139 -17.71357 38141 ft 435 kts 252°
2026-04-27 11:06 -19.25434 -17.77595 38150 ft 435 kts 252°
2026-04-27 11:06 -19.26722 -17.83811 38145 ft 433 kts 252°
2026-04-27 11:07 -19.28016 -17.90066 38154 ft 434 kts 252°
2026-04-27 11:07 -19.29298 -17.96274 38141 ft 433 kts 252°
2026-04-27 11:08 -19.30579 -18.02484 38144 ft 436 kts 251°
2026-04-27 11:08 -19.31867 -18.08744 38145 ft 435 kts 251°
2026-04-27 11:09 -19.33150 -18.14988 38141 ft 435 kts 251°
2026-04-27 11:09 -19.34433 -18.21246 38139 ft 436 kts 251°
2026-04-27 11:10 -19.35714 -18.27501 38134 ft 436 kts 251°
2026-04-27 11:10 -19.36984 -18.33721 38138 ft 436 kts 251°
2026-04-27 11:11 -19.38260 -18.39979 38138 ft 438 kts 251°
2026-04-27 11:11 -19.39545 -18.46294 38139 ft 435 kts 251°
2026-04-27 11:12 -19.40814 -18.52540 38137 ft 435 kts 251°
2026-04-27 11:12 -19.42079 -18.58777 38134 ft 436 kts 251°
2026-04-27 11:13 -19.43352 -18.65059 38138 ft 438 kts 251°
2026-04-27 11:13 -19.44618 -18.71332 38141 ft 437 kts 251°
2026-04-27 11:14 -19.45885 -18.77613 38141 ft 438 kts 251°
2026-04-27 11:14 -19.47154 -18.83919 38141 ft 438 kts 251°
2026-04-27 11:15 -19.48416 -18.90198 38139 ft 439 kts 251°
2026-04-27 11:15 -19.49686 -18.96532 38139 ft 438 kts 251°
2026-04-27 11:16 -19.50953 -19.02859 38126 ft 440 kts 251°
2026-04-27 11:16 -19.52216 -19.09179 38129 ft 439 kts 251°
2026-04-27 11:17 -19.53469 -19.15467 38135 ft 439 kts 251°
2026-04-27 11:17 -19.54726 -19.21777 38134 ft 440 kts 250°
2026-04-27 11:18 -19.55987 -19.28126 38132 ft 440 kts 250°
2026-04-27 11:18 -19.57244 -19.34466 38130 ft 442 kts 250°
2026-04-27 11:19 -19.58505 -19.40840 38137 ft 442 kts 250°
2026-04-27 11:19 -19.59751 -19.47149 38133 ft 441 kts 250°
2026-04-27 11:20 -19.61006 -19.53518 38130 ft 440 kts 250°
2026-04-27 11:20 -19.62253 -19.59852 38128 ft 441 kts 250°
2026-04-27 11:21 -19.63501 -19.66214 38130 ft 440 kts 250°
2026-04-27 11:21 -19.64742 -19.72541 38130 ft 440 kts 250°
2026-04-27 11:22 -19.65986 -19.78905 38131 ft 440 kts 250°
2026-04-27 11:22 -19.67225 -19.85247 38131 ft 442 kts 250°
2026-04-27 11:23 -19.68469 -19.91631 38129 ft 440 kts 250°
2026-04-27 11:23 -19.69705 -19.97985 38123 ft 443 kts 250°
2026-04-27 11:24 -19.70940 -20.04348 38113 ft 443 kts 250°
2026-04-27 11:24 -19.72179 -20.10748 38110 ft 442 kts 251°
2026-04-27 11:25 -19.73408 -20.17104 38110 ft 442 kts 250°
2026-04-27 11:25 -19.74639 -20.23490 38110 ft 443 kts 250°
2026-04-27 11:26 -19.75862 -20.29841 38110 ft 442 kts 250°
2026-04-27 11:26 -19.77092 -20.36238 38109 ft 442 kts 251°
2026-04-27 11:27 -19.78314 -20.42612 38109 ft 442 kts 250°
2026-04-27 11:27 -19.79538 -20.49006 38107 ft 441 kts 250°
2026-04-27 11:28 -19.80759 -20.55396 38107 ft 443 kts 251°
2026-04-27 11:28 -19.81972 -20.61762 38107 ft 443 kts 251°
2026-04-27 11:29 -19.83190 -20.68166 38111 ft 442 kts 251°
2026-04-27 11:29 -19.84403 -20.74553 38110 ft 444 kts 251°
2026-04-27 11:30 -19.85628 -20.80951 38111 ft 443 kts 250°
2026-04-27 11:30 -19.86876 -20.87351 38110 ft 443 kts 251°
2026-04-27 11:31 -19.88127 -20.93778 38109 ft 444 kts 251°
2026-04-27 11:31 -19.89362 -21.00145 38109 ft 443 kts 251°
2026-04-27 11:32 -19.90601 -21.06544 38107 ft 442 kts 251°
2026-04-27 11:32 -19.91831 -21.12912 38109 ft 444 kts 251°
2026-04-27 11:33 -19.93070 -21.19339 38109 ft 445 kts 251°
2026-04-27 11:33 -19.94303 -21.25752 38109 ft 444 kts 251°
2026-04-27 11:34 -19.95532 -21.32156 38110 ft 444 kts 251°
2026-04-27 11:34 -19.96766 -21.38593 38111 ft 444 kts 251°
2026-04-27 11:35 -19.97990 -21.44998 38113 ft 445 kts 251°
2026-04-27 11:35 -19.99213 -21.51411 38119 ft 443 kts 251°
2026-04-27 11:36 -20.00435 -21.57830 38114 ft 443 kts 251°
2026-04-27 11:36 -20.01652 -21.64234 38119 ft 444 kts 251°
2026-04-27 11:37 -20.02872 -21.70668 38121 ft 444 kts 251°
2026-04-27 11:37 -20.04086 -21.77080 38128 ft 445 kts 252°
2026-04-27 11:38 -20.05298 -21.83501 38128 ft 444 kts 252°
2026-04-27 11:38 -20.06510 -21.89932 38125 ft 445 kts 252°
2026-04-27 11:39 -20.07727 -21.96403 38126 ft 446 kts 252°
2026-04-27 11:39 -20.08936 -22.02849 38126 ft 444 kts 252°
2026-04-27 11:40 -20.10141 -22.09285 38128 ft 445 kts 252°
2026-04-27 11:40 -20.11341 -22.15703 38140 ft 446 kts 252°
2026-04-27 11:41 -20.12546 -22.22167 38144 ft 444 kts 252°
2026-04-27 11:41 -20.13743 -22.28600 38134 ft 445 kts 252°
2026-04-27 11:42 -20.14941 -22.35051 38141 ft 446 kts 252°
2026-04-27 11:42 -20.16133 -22.41485 38137 ft 445 kts 252°
2026-04-27 11:43 -20.17320 -22.47907 38137 ft 445 kts 252°
2026-04-27 11:43 -20.18509 -22.54349 38142 ft 446 kts 252°
2026-04-27 11:44 -20.19695 -22.60789 38136 ft 444 kts 252°
2026-04-27 11:44 -20.20879 -22.67233 38144 ft 445 kts 253°
2026-04-27 11:45 -20.21868 -22.72624 38140 ft 445 kts 253°
2026-04-27 11:45 -20.23242 -22.80137 38134 ft 444 kts 253°
2026-04-27 11:46 -20.24420 -22.86589 38138 ft 446 kts 253°
2026-04-27 11:46 -20.25600 -22.93066 38137 ft 445 kts 253°
2026-04-27 11:47 -20.26768 -22.99492 38140 ft 445 kts 253°
2026-04-27 11:47 -20.27938 -23.05941 38136 ft 445 kts 253°
2026-04-27 11:48 -20.29109 -23.12413 38140 ft 445 kts 253°
2026-04-27 11:48 -20.30271 -23.18851 38132 ft 445 kts 253°
2026-04-27 11:49 -20.31436 -23.25315 38133 ft 445 kts 253°
2026-04-27 11:49 -20.32601 -23.31793 38132 ft 446 kts 253°
2026-04-27 11:50 -20.33761 -23.38260 38129 ft 446 kts 253°
2026-04-27 11:50 -20.34923 -23.44750 38127 ft 445 kts 253°
2026-04-27 11:51 -20.36072 -23.51186 38128 ft 444 kts 254°
2026-04-27 11:52 -20.37798 -23.60876 38128 ft 444 kts 254°
2026-04-27 11:52 -20.38943 -23.67319 38131 ft 445 kts 254°
2026-04-27 11:53 -20.40090 -23.73790 38128 ft 445 kts 254°
2026-04-27 11:53 -20.41235 -23.80265 38129 ft 446 kts 254°
2026-04-27 11:54 -20.42383 -23.86768 38128 ft 446 kts 254°
2026-04-27 11:54 -20.43525 -23.93256 38126 ft 447 kts 255°
2026-04-27 11:55 -20.44661 -23.99723 38129 ft 446 kts 254°
2026-04-27 11:55 -20.45794 -24.06190 38127 ft 445 kts 255°
2026-04-27 11:56 -20.46930 -24.12687 38124 ft 445 kts 255°
2026-04-27 11:56 -20.48052 -24.19121 38125 ft 444 kts 255°
2026-04-27 11:57 -20.49180 -24.25600 38120 ft 445 kts 255°
2026-04-27 11:57 -20.50303 -24.32065 38123 ft 445 kts 255°
2026-04-27 11:58 -20.51432 -24.38577 38120 ft 446 kts 255°
2026-04-27 11:58 -20.52552 -24.45059 38120 ft 445 kts 255°
2026-04-27 11:59 -20.53664 -24.51508 38120 ft 446 kts 255°
2026-04-27 11:59 -20.54781 -24.58000 38119 ft 445 kts 255°
2026-04-27 12:00 -20.55889 -24.64455 38115 ft 444 kts 255°
2026-04-27 12:00 -20.56997 -24.70923 38119 ft 443 kts 255°
2026-04-27 12:01 -20.58104 -24.77400 38120 ft 444 kts 255°
2026-04-27 12:01 -20.59203 -24.83847 38117 ft 443 kts 255°
2026-04-27 12:02 -20.60301 -24.90298 38115 ft 444 kts 255°
2026-04-27 12:02 -20.61404 -24.96795 38120 ft 444 kts 255°
2026-04-27 12:03 -20.62493 -25.03230 38129 ft 442 kts 255°
2026-04-27 12:03 -20.63582 -25.09670 38136 ft 445 kts 255°
2026-04-27 12:04 -20.64674 -25.16156 38134 ft 444 kts 255°
2026-04-27 12:04 -20.65760 -25.22611 38133 ft 443 kts 255°
2026-04-27 12:05 -20.66844 -25.29079 38131 ft 443 kts 255°
2026-04-27 12:05 -20.67923 -25.35524 38132 ft 443 kts 255°
2026-04-27 12:06 -20.69008 -25.42022 38129 ft 444 kts 255°
2026-04-27 12:06 -20.70081 -25.48469 38128 ft 443 kts 255°
2026-04-27 12:07 -20.71163 -25.54977 38129 ft 444 kts 255°
2026-04-27 12:07 -20.72230 -25.61419 38126 ft 445 kts 255°
2026-04-27 12:08 -20.73305 -25.67920 38132 ft 445 kts 255°
2026-04-27 12:08 -20.74408 -25.74415 38131 ft 444 kts 255°
2026-04-27 12:09 -20.75514 -25.80861 38132 ft 445 kts 255°
2026-04-27 12:09 -20.76627 -25.87375 38128 ft 445 kts 255°
2026-04-27 12:10 -20.77732 -25.93862 38132 ft 446 kts 255°
2026-04-27 12:10 -20.78840 -26.00382 38131 ft 446 kts 255°
2026-04-27 12:11 -20.79939 -26.06868 38128 ft 447 kts 255°
2026-04-27 12:11 -20.81031 -26.13333 38130 ft 445 kts 255°
2026-04-27 12:12 -20.82133 -26.19862 38128 ft 445 kts 255°
2026-04-27 12:12 -20.83221 -26.26332 38126 ft 444 kts 255°
2026-04-27 12:13 -20.84311 -26.32825 38127 ft 447 kts 255°
2026-04-27 12:13 -20.85408 -26.39377 38127 ft 446 kts 255°
2026-04-27 12:14 -20.86485 -26.45834 38128 ft 444 kts 255°
2026-04-27 12:14 -20.87571 -26.52345 38126 ft 444 kts 255°
2026-04-27 12:15 -20.88647 -26.58817 38126 ft 445 kts 255°
2026-04-27 12:15 -20.89726 -26.65327 38122 ft 444 kts 256°
2026-04-27 12:16 -20.90795 -26.71790 38131 ft 445 kts 256°
2026-04-27 12:16 -20.91874 -26.78329 38131 ft 445 kts 256°
2026-04-27 12:17 -20.92942 -26.84818 38131 ft 445 kts 256°
2026-04-27 12:17 -20.94006 -26.91296 38134 ft 444 kts 256°
2026-04-27 12:18 -20.95074 -26.97814 38130 ft 445 kts 256°
2026-04-27 12:18 -20.96133 -27.04299 38132 ft 445 kts 256°
2026-04-27 12:19 -20.97190 -27.10787 38130 ft 444 kts 256°
2026-04-27 12:19 -20.98255 -27.17334 38131 ft 445 kts 256°
2026-04-27 12:20 -20.99303 -27.23796 38129 ft 444 kts 256°
2026-04-27 12:20 -21.00355 -27.30296 38130 ft 445 kts 256°
2026-04-27 12:21 -21.01401 -27.36778 38129 ft 444 kts 256°
2026-04-27 12:21 -21.02450 -27.43294 38127 ft 444 kts 256°
2026-04-27 12:22 -21.03496 -27.49808 38129 ft 446 kts 256°
2026-04-27 12:22 -21.04541 -27.56330 38123 ft 445 kts 256°
2026-04-27 12:23 -21.05583 -27.62853 38120 ft 445 kts 256°
2026-04-27 12:23 -21.06617 -27.69342 38119 ft 447 kts 257°
2026-04-27 12:24 -21.07656 -27.75878 38119 ft 446 kts 257°
2026-04-27 12:24 -21.08692 -27.82411 38117 ft 445 kts 257°
2026-04-27 12:25 -21.09723 -27.88930 38115 ft 446 kts 257°
2026-04-27 12:25 -21.10754 -27.95468 38123 ft 446 kts 257°
2026-04-27 12:26 -21.11781 -28.01991 38124 ft 446 kts 257°
2026-04-27 12:26 -21.12807 -28.08532 38122 ft 446 kts 257°
2026-04-27 12:27 -21.13831 -28.15076 38121 ft 446 kts 257°
2026-04-27 12:27 -21.14850 -28.21594 38124 ft 447 kts 257°
2026-04-27 12:28 -21.15870 -28.28148 38120 ft 445 kts 257°
2026-04-27 12:28 -21.16879 -28.34645 38121 ft 446 kts 257°
2026-04-27 12:29 -21.17892 -28.41183 38120 ft 446 kts 257°
2026-04-27 12:29 -21.18903 -28.47725 38117 ft 446 kts 257°
2026-04-27 12:30 -21.19912 -28.54275 38119 ft 444 kts 257°
2026-04-27 12:30 -21.20908 -28.60752 38117 ft 446 kts 257°
2026-04-27 12:31 -21.21915 -28.67319 38122 ft 446 kts 257°
2026-04-27 12:31 -21.22916 -28.73873 38123 ft 445 kts 257°
2026-04-27 12:32 -21.23909 -28.80383 38117 ft 446 kts 258°
2026-04-27 12:32 -21.24908 -28.86945 38117 ft 447 kts 257°
2026-04-27 12:33 -21.25900 -28.93490 38120 ft 447 kts 258°
2026-04-27 12:33 -21.26892 -29.00052 38112 ft 447 kts 258°
2026-04-27 12:34 -21.27882 -29.06615 38118 ft 445 kts 258°
2026-04-27 12:34 -21.28869 -29.13172 38117 ft 445 kts 257°
2026-04-27 12:35 -21.29849 -29.19705 38116 ft 445 kts 258°
2026-04-27 12:35 -21.30824 -29.26216 38115 ft 446 kts 258°
2026-04-27 12:36 -21.31807 -29.32804 38116 ft 446 kts 258°
2026-04-27 12:36 -21.32778 -29.39329 38114 ft 447 kts 258°
2026-04-27 12:37 -21.33756 -29.45916 38116 ft 448 kts 258°
2026-04-27 12:37 -21.34726 -29.52474 38115 ft 448 kts 258°
2026-04-27 12:38 -21.35698 -29.59054 38114 ft 447 kts 258°
2026-04-27 12:38 -21.36667 -29.65645 38113 ft 446 kts 258°
2026-04-27 12:39 -21.37628 -29.72190 38119 ft 446 kts 258°
2026-04-27 12:39 -21.38585 -29.78726 38118 ft 445 kts 258°
2026-04-27 12:40 -21.39541 -29.85273 38117 ft 447 kts 258°
2026-04-27 12:40 -21.40498 -29.91849 38117 ft 447 kts 258°
2026-04-27 12:41 -21.41449 -29.98405 38120 ft 446 kts 258°
2026-04-27 12:41 -21.42400 -30.04972 38116 ft 447 kts 258°
2026-04-27 12:42 -21.43352 -30.11568 38115 ft 447 kts 258°
2026-04-27 12:42 -21.44299 -30.18150 38117 ft 448 kts 258°
2026-04-27 12:43 -21.45247 -30.24749 38113 ft 447 kts 258°
2026-04-27 12:43 -21.46182 -30.31286 38113 ft 447 kts 259°
2026-04-27 12:44 -21.47124 -30.37884 38112 ft 447 kts 259°
2026-04-27 12:44 -21.48057 -30.44439 38115 ft 447 kts 259°
2026-04-27 12:45 -21.48990 -30.51008 38111 ft 447 kts 258°
2026-04-27 12:45 -21.50320 -30.57528 38113 ft 446 kts 255°
2026-04-27 12:46 -21.51695 -30.64002 38111 ft 447 kts 255°
2026-04-27 12:46 -21.53049 -30.70473 38117 ft 447 kts 256°
2026-04-27 12:47 -21.54402 -30.76990 38118 ft 447 kts 256°
2026-04-27 12:47 -21.55745 -30.83495 38119 ft 447 kts 256°
2026-04-27 12:48 -21.57075 -30.89969 38115 ft 446 kts 256°
2026-04-27 12:48 -21.58408 -30.96468 38116 ft 446 kts 256°
2026-04-27 12:49 -21.59733 -31.02950 38117 ft 447 kts 256°
2026-04-27 12:49 -21.61066 -31.09485 38111 ft 447 kts 256°
2026-04-27 12:50 -21.62389 -31.15987 38114 ft 447 kts 256°
2026-04-27 12:50 -21.63710 -31.22491 38114 ft 447 kts 256°
2026-04-27 12:51 -21.65029 -31.28998 38107 ft 445 kts 256°
2026-04-27 12:51 -21.66337 -31.35468 38111 ft 446 kts 256°
2026-04-27 12:52 -21.67649 -31.41971 38106 ft 447 kts 256°
2026-04-27 12:52 -21.68961 -31.48484 38100 ft 447 kts 256°
2026-04-27 12:53 -21.70921 -31.58241 38100 ft 446 kts 256°
2026-04-27 12:53 -21.72223 -31.64740 38097 ft 447 kts 256°
2026-04-27 12:54 -21.73533 -31.71300 38103 ft 448 kts 257°
2026-04-27 12:54 -21.74834 -31.77822 38101 ft 447 kts 257°
2026-04-27 12:55 -21.76134 -31.84352 38098 ft 447 kts 257°
2026-04-27 12:55 -21.77419 -31.90825 38097 ft 446 kts 257°
2026-04-27 12:56 -21.78715 -31.97367 38092 ft 446 kts 257°
2026-04-27 12:56 -21.80001 -32.03868 38093 ft 446 kts 257°
2026-04-27 12:57 -21.81287 -32.10385 38093 ft 447 kts 257°
2026-04-27 12:57 -21.82566 -32.16882 38095 ft 446 kts 257°
2026-04-27 12:58 -21.83856 -32.23447 38092 ft 447 kts 257°
2026-04-27 12:58 -21.85137 -32.29984 38089 ft 447 kts 257°
2026-04-27 12:59 -21.86411 -32.36498 38089 ft 447 kts 257°
2026-04-27 12:59 -21.87688 -32.43039 38090 ft 447 kts 257°
2026-04-27 13:00 -21.88957 -32.49558 38089 ft 447 kts 257°
2026-04-27 13:00 -21.90223 -32.56071 38087 ft 446 kts 257°
2026-04-27 13:01 -21.91493 -32.62620 38087 ft 446 kts 257°
2026-04-27 13:01 -21.92753 -32.69138 38091 ft 447 kts 257°
2026-04-27 13:02 -21.94010 -32.75651 38096 ft 445 kts 257°
2026-04-27 13:02 -21.95261 -32.82147 38093 ft 446 kts 257°
2026-04-27 13:03 -21.96520 -32.88695 38095 ft 446 kts 257°
2026-04-27 13:03 -21.97772 -32.95224 38094 ft 447 kts 257°
2026-04-27 13:04 -21.99023 -33.01765 38094 ft 447 kts 258°
2026-04-27 13:04 -22.00269 -33.08293 38089 ft 447 kts 258°
2026-04-27 13:05 -22.01510 -33.14811 38090 ft 446 kts 258°
2026-04-27 13:05 -22.02751 -33.21339 38092 ft 445 kts 258°
2026-04-27 13:06 -22.03985 -33.27848 38085 ft 445 kts 258°
2026-04-27 13:06 -22.05218 -33.34365 38087 ft 445 kts 258°
2026-04-27 13:07 -22.06452 -33.40908 38080 ft 444 kts 258°
2026-04-27 13:07 -22.07681 -33.47430 38083 ft 446 kts 258°
2026-04-27 13:08 -22.08904 -33.53944 38081 ft 445 kts 258°
2026-04-27 13:08 -22.10130 -33.60485 38077 ft 446 kts 258°
2026-04-27 13:09 -22.11351 -33.67010 38086 ft 446 kts 258°
2026-04-27 13:09 -22.12571 -33.73553 38085 ft 446 kts 258°
2026-04-27 13:10 -22.13782 -33.80061 38079 ft 444 kts 258°
2026-04-27 13:10 -22.14995 -33.86591 38078 ft 445 kts 258°
2026-04-27 13:11 -22.16208 -33.93132 38078 ft 445 kts 258°
2026-04-27 13:11 -22.17408 -33.99626 38074 ft 444 kts 258°
2026-04-27 13:12 -22.18610 -34.06147 38076 ft 444 kts 258°
2026-04-27 13:12 -22.19813 -34.12682 38076 ft 444 kts 258°
2026-04-27 13:13 -22.21009 -34.19197 38073 ft 444 kts 258°
2026-04-27 13:13 -22.22206 -34.25732 38075 ft 444 kts 259°
2026-04-27 13:14 -22.23391 -34.32221 38075 ft 445 kts 259°
2026-04-27 13:14 -22.24584 -34.38763 38073 ft 444 kts 259°
2026-04-27 13:15 -22.25769 -34.45279 38073 ft 444 kts 259°
2026-04-27 13:15 -22.26949 -34.51783 38070 ft 444 kts 259°
2026-04-27 13:16 -22.28133 -34.58322 38071 ft 443 kts 259°
2026-04-27 13:16 -22.29309 -34.64835 38070 ft 444 kts 259°
2026-04-27 13:17 -22.30488 -34.71382 38075 ft 443 kts 259°
2026-04-27 13:17 -22.31650 -34.77851 38072 ft 443 kts 259°
2026-04-27 13:18 -22.32824 -34.84399 38075 ft 443 kts 259°
2026-04-27 13:18 -22.33986 -34.90893 38075 ft 442 kts 259°
2026-04-27 13:19 -22.35150 -34.97417 38075 ft 442 kts 259°
2026-04-27 13:19 -22.36307 -35.03915 38076 ft 443 kts 259°
2026-04-27 13:20 -22.37465 -35.10438 38075 ft 443 kts 259°
2026-04-27 13:20 -22.38622 -35.16970 38074 ft 443 kts 259°
2026-04-27 13:21 -22.39772 -35.23478 38072 ft 443 kts 259°
2026-04-27 13:21 -22.40919 -35.29986 38075 ft 443 kts 259°
2026-04-27 13:22 -22.42068 -35.36519 38071 ft 442 kts 259°
2026-04-27 13:22 -22.43205 -35.43002 38070 ft 441 kts 259°
2026-04-27 13:23 -22.44348 -35.49534 38071 ft 441 kts 259°
2026-04-27 13:23 -22.45482 -35.56032 38070 ft 442 kts 259°
2026-04-27 13:24 -22.46613 -35.62525 38069 ft 442 kts 260°
2026-04-27 13:24 -22.47747 -35.69053 38078 ft 443 kts 260°
2026-04-27 13:25 -22.48720 -35.75615 38070 ft 441 kts 267°
2026-04-27 13:25 -22.48727 -35.82228 38077 ft 442 kts 271°
2026-04-27 13:26 -22.48640 -35.88851 38077 ft 441 kts 271°
2026-04-27 13:26 -22.48542 -35.95436 38070 ft 440 kts 271°
2026-04-27 13:27 -22.48435 -36.02055 38063 ft 440 kts 271°
2026-04-27 13:27 -22.48323 -36.08653 38061 ft 440 kts 271°
2026-04-27 13:28 -22.48206 -36.15251 38062 ft 440 kts 271°
2026-04-27 13:28 -22.48087 -36.21868 38058 ft 441 kts 271°
2026-04-27 13:29 -22.47965 -36.28480 38058 ft 442 kts 271°
2026-04-27 13:29 -22.47839 -36.35091 38052 ft 442 kts 271°
2026-04-27 13:30 -22.47711 -36.41705 38047 ft 441 kts 271°
2026-04-27 13:30 -22.47580 -36.48302 38046 ft 441 kts 271°
2026-04-27 13:31 -22.47446 -36.54951 38042 ft 441 kts 271°
2026-04-27 13:31 -22.47310 -36.61530 38042 ft 441 kts 271°
2026-04-27 13:32 -22.47171 -36.68132 38051 ft 440 kts 271°
2026-04-27 13:32 -22.47029 -36.74767 38048 ft 439 kts 271°
2026-04-27 13:33 -22.46886 -36.81326 38047 ft 440 kts 271°
2026-04-27 13:33 -22.46738 -36.87951 38047 ft 441 kts 271°
2026-04-27 13:34 -22.46589 -36.94554 38048 ft 442 kts 271°
2026-04-27 13:34 -22.46436 -37.01151 38042 ft 440 kts 272°
2026-04-27 13:35 -22.46282 -37.07734 38042 ft 441 kts 272°
2026-04-27 13:35 -22.46124 -37.14334 38043 ft 440 kts 272°
2026-04-27 13:36 -22.45964 -37.20939 38045 ft 441 kts 272°
2026-04-27 13:36 -22.45800 -37.27555 38044 ft 440 kts 272°
2026-04-27 13:37 -22.45635 -37.34144 38042 ft 440 kts 272°
2026-04-27 13:37 -22.45467 -37.40717 38044 ft 441 kts 272°
2026-04-27 13:38 -22.45296 -37.47323 38043 ft 440 kts 272°
2026-04-27 13:38 -22.45122 -37.53943 38037 ft 441 kts 272°
2026-04-27 13:39 -22.44946 -37.60524 38035 ft 440 kts 272°
2026-04-27 13:39 -22.44766 -37.67128 38045 ft 441 kts 272°
2026-04-27 13:40 -22.44584 -37.73740 38042 ft 440 kts 272°
2026-04-27 13:40 -22.44401 -37.80305 38037 ft 440 kts 272°
2026-04-27 13:41 -22.44213 -37.86935 38028 ft 441 kts 272°
2026-04-27 13:41 -22.44023 -37.93511 38025 ft 441 kts 272°
2026-04-27 13:42 -22.43831 -38.00109 38024 ft 440 kts 272°
2026-04-27 13:42 -22.43636 -38.06716 38021 ft 440 kts 272°
2026-04-27 13:43 -22.43440 -38.13286 38021 ft 440 kts 271°
2026-04-27 13:43 -22.43930 -38.19866 38019 ft 441 kts 264°
2026-04-27 13:44 -22.44655 -38.26479 38021 ft 442 kts 264°
2026-04-27 13:44 -22.45368 -38.33054 38017 ft 442 kts 265°
2026-04-27 13:45 -22.46075 -38.39635 38012 ft 441 kts 265°
2026-04-27 13:45 -22.46775 -38.46182 38014 ft 441 kts 265°
2026-04-27 13:46 -22.47477 -38.52774 38013 ft 441 kts 265°
2026-04-27 13:46 -22.48170 -38.59321 38013 ft 440 kts 265°
2026-04-27 13:47 -22.48864 -38.65903 38012 ft 441 kts 265°
2026-04-27 13:47 -22.49552 -38.72451 38019 ft 440 kts 265°
2026-04-27 13:48 -22.50238 -38.79010 38021 ft 440 kts 265°
2026-04-27 13:48 -22.50921 -38.85555 38015 ft 440 kts 265°
2026-04-27 13:49 -22.51598 -38.92084 38015 ft 440 kts 265°
2026-04-27 13:49 -22.52277 -38.98650 38015 ft 440 kts 265°
2026-04-27 13:50 -22.52953 -39.05225 38013 ft 440 kts 265°
2026-04-27 13:50 -22.53626 -39.11788 38010 ft 441 kts 265°
2026-04-27 13:51 -22.54297 -39.18356 38011 ft 440 kts 265°
2026-04-27 13:51 -22.54963 -39.24898 38007 ft 440 kts 265°
2026-04-27 13:52 -22.55627 -39.31466 38085 ft 444 kts 265°
2026-04-27 13:52 -22.55961 -39.34763 38417 ft 443 kts 265°
2026-04-27 13:52 -22.56295 -39.38079 38881 ft 439 kts 265°
2026-04-27 13:53 -22.56951 -39.44606 39395 ft 438 kts 265°
2026-04-27 13:53 -22.57279 -39.47882 39588 ft 439 kts 265°
2026-04-27 13:53 -22.57603 -39.51123 39798 ft 439 kts 266°
2026-04-27 13:54 -22.57932 -39.54422 39994 ft 439 kts 266°
2026-04-27 13:54 -22.58583 -39.60972 39996 ft 439 kts 266°
2026-04-27 13:55 -22.59229 -39.67500 40004 ft 439 kts 266°
2026-04-27 13:55 -22.59876 -39.74063 40000 ft 438 kts 266°
2026-04-27 13:56 -22.60518 -39.80606 40001 ft 440 kts 266°
2026-04-27 13:56 -22.61161 -39.87177 39997 ft 438 kts 266°
2026-04-27 13:57 -22.61796 -39.93706 39991 ft 437 kts 266°
2026-04-27 13:57 -22.62427 -40.00210 39996 ft 437 kts 266°
2026-04-27 13:58 -22.63058 -40.06746 39994 ft 437 kts 266°
2026-04-27 13:58 -22.63681 -40.13233 39983 ft 437 kts 266°
2026-04-27 13:59 -22.64308 -40.19791 39985 ft 438 kts 266°
2026-04-27 13:59 -22.64932 -40.26332 39977 ft 438 kts 266°
2026-04-27 14:00 -22.65551 -40.32858 39983 ft 438 kts 266°
2026-04-27 14:00 -22.66166 -40.39374 39978 ft 438 kts 266°
2026-04-27 14:01 -22.66783 -40.45926 39973 ft 438 kts 266°
2026-04-27 14:01 -22.67396 -40.52472 39969 ft 438 kts 266°
2026-04-27 14:02 -22.68005 -40.59007 39967 ft 438 kts 266°
2026-04-27 14:02 -22.68610 -40.65527 39969 ft 437 kts 267°
2026-04-27 14:03 -22.69213 -40.72055 39979 ft 436 kts 267°
2026-04-27 14:03 -22.69815 -40.78604 39981 ft 437 kts 267°
2026-04-27 14:04 -22.70412 -40.85126 39977 ft 436 kts 267°
2026-04-27 14:04 -22.71002 -40.91600 39975 ft 436 kts 267°
2026-04-27 14:05 -22.71596 -40.98146 39972 ft 436 kts 267°
2026-04-27 14:05 -22.72185 -41.04659 39970 ft 436 kts 267°
2026-04-27 14:06 -22.72771 -41.11187 39969 ft 436 kts 267°
2026-04-27 14:06 -22.73354 -41.17695 39963 ft 436 kts 267°
2026-04-27 14:07 -22.73933 -41.24197 39963 ft 438 kts 267°
2026-04-27 14:07 -22.74513 -41.30744 39963 ft 437 kts 267°
2026-04-27 14:08 -22.75093 -41.37313 39965 ft 437 kts 267°
2026-04-27 14:08 -22.75667 -41.43843 39960 ft 437 kts 267°
2026-04-27 14:09 -22.76238 -41.50380 39952 ft 437 kts 267°
2026-04-27 14:09 -22.76804 -41.56885 39949 ft 436 kts 267°
2026-04-27 14:10 -22.77371 -41.63428 39947 ft 437 kts 267°
2026-04-27 14:10 -22.77853 -41.69014 39956 ft 437 kts 267°